FW0644 Weather Reports


time (UTC)temp
F
wind
direction
speed
knots
gust
knots
rain 1hr
in
rain 24hr
in
rain mn
in
humidity
%
barometer
mb
20201126034311 34 322 3.5 7.0 0.00 0.08 0.00 87 1017.9
20201126034213 34 323 3.5 7.0 0.00 0.08 0.00 87 1017.9
20201126034111 34 324 3.5 7.0 0.00 0.08 0.00 87 1017.9
20201126034028 34 324 4.3 7.0 0.00 0.08 0.00 87 1017.9
20201126033909 34 325 4.3 7.0 0.00 0.08 0.00 88 1017.9
20201126033809 34 326 5.2 5.2 0.00 0.08 0.00 88 1017.9
20201126033714 34 325 5.2 5.2 0.00 0.08 0.00 88 1017.9
20201126033610 34 320 5.2 5.2 0.00 0.08 0.00 88 1017.9
20201126033515 34 322 1.7 4.3 0.00 0.08 0.00 88 1017.9
20201126033412 34 318 1.7 4.3 0.00 0.08 0.00 88 1016.9
20201126033309 34 319 3.5 4.3 0.00 0.08 0.00 88 1016.9
20201126033209 34 319 2.6 3.5 0.00 0.08 0.00 88 1016.9
20201126033110 34 312 1.7 3.5 0.00 0.08 0.00 88 1016.9
20201126033020 34 311 2.6 3.5 0.00 0.08 0.00 88 1016.9
20201126032911 34 311 1.7 3.5 0.00 0.08 0.00 88 1016.9
20201126032810 34 311 1.7 3.5 0.00 0.08 0.00 88 1016.9
20201126032709 34 311 1.7 4.3 0.00 0.08 0.00 88 1016.9
20201126032610 34 315 1.7 4.3 0.00 0.08 0.00 88 1016.9
20201126032523 34 313 1.7 4.3 0.00 0.08 0.00 89 1016.9
20201126032411 34 312 0.9 4.3 0.00 0.08 0.00 89 1016.9
20201126032317 34 312 2.6 4.3 0.00 0.08 0.00 89 1016.9
20201126032215 34 312 2.6 4.3 0.00 0.08 0.00 89 1016.9
20201126032111 34 314 2.6 4.3 0.00 0.08 0.00 89 1016.9
20201126032024 34 314 2.6 4.3 0.00 0.08 0.00 89 1016.9
20201126031920 34 314 3.5 4.3 0.00 0.08 0.00 89 1016.9
20201126031819 34 315 2.6 4.3 0.00 0.08 0.00 89 1017.9
20201126031713 34 315 1.7 3.5 0.00 0.08 0.00 89 1017.9
20201126031610 34 313 1.7 2.6 0.00 0.08 0.00 89 1017.9
20201126031523 34 315 1.7 2.6 0.00 0.08 0.00 89 1017.9
20201126031414 34 322 0.9 2.6 0.00 0.08 0.00 89 1017.9
20201126031313 34 324 0.9 2.6 0.00 0.08 0.00 89 1017.9
20201126031212 34 324 0.9 2.6 0.00 0.08 0.00 89 1017.9
20201126031110 34 323 1.7 2.6 0.00 0.08 0.00 89 1017.9
20201126031018 34 320 1.7 2.6 0.00 0.08 0.00 89 1017.9
20201126030910 34 321 1.7 2.6 0.00 0.08 0.00 89 1017.9
20201126030810 34 318 0.9 3.5 0.00 0.08 0.00 89 1017.9
20201126030712 34 318 0.9 3.5 0.00 0.08 0.00 90 1017.9
20201126030610 34 318 1.7 3.5 0.00 0.08 0.00 90 1017.9
20201126030511 34 318 1.7 3.5 0.00 0.08 0.00 90 1017.9
20201126030409 34 315 1.7 3.5 0.00 0.08 0.00 90 1017.9
20201126030309 34 314 1.7 3.5 0.00 0.08 0.00 90 1016.9
20201126030210 34 314 1.7 3.5 0.00 0.08 0.00 90 1016.9
20201126030110 34 310 2.6 3.5 0.00 0.08 0.00 90 1016.9
20201126030017 34 310 0.9 3.5 0.00 0.08 0.00 90 1016.9
20201126025911 34 311 2.6 3.5 0.00 0.08 0.00 90 1016.9
20201126025809 34 310 2.6 3.5 0.00 0.08 0.00 90 1016.9
20201126025712 34 310 2.6 3.5 0.00 0.08 0.00 90 1016.9
20201126025610 34 309 2.6 3.5 0.00 0.08 0.00 90 1016.9
20201126025518 34 309 2.6 3.5 0.00 0.08 0.00 91 1016.9
20201126025413 34 308 0.9 2.6 0.00 0.08 0.00 91 1016.9
20201126025310 34 310 1.7 2.6 0.00 0.08 0.00 91 1016.9
20201126025209 34 310 0.9 2.6 0.00 0.08 0.00 91 1016.9
20201126025110 34 315 0.9 2.6 0.00 0.08 0.00 91 1016.9
20201126025021 34 315 1.7 2.6 0.00 0.08 0.00 91 1016.9
20201126024915 34 315 0.0 2.6 0.00 0.08 0.00 91 1016.9
20201126024817 34 315 0.0 2.6 0.00 0.08 0.00 91 1017.9
20201126024709 34 315 0.9 2.6 0.00 0.08 0.00 91 1017.9
20201126024609 34 315 0.9 2.6 0.00 0.08 0.00 91 1017.9
20201126024517 34 306 0.9 2.6 0.00 0.08 0.00 91 1017.9
20201126024410 34 303 0.9 2.6 0.00 0.08 0.00 91 1017.9
20201126024311 34 300 0.0 2.6 0.00 0.08 0.00 91 1017.9
20201126024214 34 296 0.9 2.6 0.00 0.08 0.00 91 1017.9
20201126024112 34 289 0.9 2.6 0.00 0.08 0.00 91 1017.9
20201126024020 34 285 0.9 2.6 0.00 0.08 0.00 91 1017.9
20201126023914 34 279 0.9 2.6 0.00 0.08 0.00 91 1017.9
20201126023812 34 270 0.9 2.6 0.00 0.08 0.00 91 1017.9
20201126023711 34 269 0.9 2.6 0.00 0.08 0.00 91 1017.9
20201126023613 34 266 1.7 2.6 0.00 0.08 0.00 91 1017.9
20201126023515 34 256 0.9 2.6 0.00 0.08 0.00 91 1017.9
20201126023412 34 256 0.9 2.6 0.00 0.08 0.00 91 1017.9
20201126023310 34 258 0.0 2.6 0.00 0.08 0.00 91 1016.9
20201126023211 34 264 0.9 3.5 0.00 0.08 0.00 91 1016.9
20201126023111 34 269 1.7 3.5 0.00 0.08 0.00 91 1016.9
20201126023016 34 269 1.7 3.5 0.00 0.08 0.00 91 1016.9
20201126022909 34 270 1.7 3.5 0.00 0.08 0.00 91 1016.9
20201126022810 34 275 0.9 3.5 0.00 0.08 0.00 91 1016.9
20201126022713 34 273 0.9 3.5 0.00 0.08 0.00 90 1016.9
20201126022610 34 271 1.7 3.5 0.00 0.08 0.00 90 1016.9
20201126022512 34 271 1.7 3.5 0.00 0.08 0.00 90 1016.9
20201126022411 34 272 1.7 3.5 0.00 0.08 0.00 90 1016.9
20201126022312 34 270 1.7 3.5 0.00 0.08 0.00 90 1016.9
20201126022210 34 269 0.9 4.3 0.00 0.08 0.00 90 1016.9
20201126022111 34 266 2.6 4.3 0.00 0.08 0.00 90 1016.9
20201126022019 34 268 2.6 4.3 0.00 0.08 0.00 90 1016.9
20201126021912 34 267 0.9 4.3 0.00 0.08 0.00 90 1016.9
20201126021824 34 266 0.9 4.3 0.00 0.08 0.00 90 1016.9
20201126021709 34 266 0.9 4.3 0.00 0.08 0.00 90 1016.9
20201126021609 34 267 1.7 4.3 0.00 0.08 0.00 90 1016.9
20201126021520 34 269 1.7 4.3 0.00 0.08 0.00 90 1016.9
20201126021415 34 271 3.5 4.3 0.00 0.08 0.00 90 1016.9
20201126021329 34 273 3.5 4.3 0.00 0.08 0.00 90 1016.9
20201126021217 34 273 1.7 4.3 0.00 0.08 0.00 90 1016.9
20201126021109 34 272 1.7 4.3 0.00 0.08 0.00 90 1016.9
20201126021021 34 271 1.7 4.3 0.00 0.08 0.00 90 1016.9
20201126020913 34 272 2.6 4.3 0.00 0.08 0.00 89 1016.9
20201126020810 34 269 1.7 4.3 0.00 0.08 0.00 90 1016.9
20201126020710 34 269 1.7 4.3 0.00 0.08 0.00 89 1016.9
20201126020617 34 270 0.9 4.3 0.00 0.08 0.00 89 1016.9
20201126020515 34 270 0.9 4.3 0.00 0.08 0.00 89 1016.9
20201126020411 34 268 2.6 4.3 0.00 0.08 0.00 89 1016.9
20201126020310 34 267 1.7 4.3 0.00 0.08 0.00 89 1016.9
20201126020213 34 270 1.7 4.3 0.00 0.08 0.00 89 1016.9
20201126020112 34 270 1.7 3.5 0.00 0.08 0.00 89 1016.9
20201126020021 34 270 1.7 3.5 0.00 0.08 0.00 89 1016.9
20201126015909 34 270 1.7 3.5 0.00 0.08 0.00 89 1016.9
20201126015810 34 275 0.9 3.5 0.00 0.08 0.00 89 1016.9
20201126015712 34 276 1.7 3.5 0.00 0.08 0.00 89 1016.9
20201126015610 34 270 1.7 3.5 0.00 0.08 0.00 89 1016.9
20201126015519 34 268 3.5 3.5 0.00 0.08 0.00 89 1016.9
20201126015409 34 268 1.7 3.5 0.00 0.08 0.00 89 1016.9
20201126015316 34 272 2.6 4.3 0.00 0.08 0.00 89 1016.9
20201126015210 34 276 0.9 5.2 0.00 0.08 0.00 89 1016.9
20201126015110 34 278 2.6 5.2 0.00 0.08 0.00 89 1016.9
20201126015018 34 280 2.6 5.2 0.00 0.08 0.00 89 1016.9
20201126014910 34 279 2.6 5.2 0.00 0.08 0.00 89 1016.9
20201126014809 34 276 0.9 5.2 0.00 0.08 0.00 89 1016.9
20201126014709 34 277 1.7 5.2 0.00 0.08 0.00 89 1016.9
20201126014610 34 276 3.5 5.2 0.00 0.08 0.00 89 1016.9
20201126014520 34 284 1.7 5.2 0.00 0.08 0.00 89 1016.9
20201126014410 34 284 1.7 5.2 0.00 0.08 0.00 89 1016.9
20201126014310 34 284 2.6 5.2 0.00 0.08 0.00 89 1016.9
20201126014209 34 283 1.7 3.5 0.00 0.08 0.00 89 1016.9
20201126014115 34 278 0.9 3.5 0.00 0.08 0.00 89 1016.9
20201126014017 34 281 0.9 3.5 0.00 0.08 0.00 89 1016.9
20201126013913 34 285 1.7 3.5 0.00 0.08 0.00 89 1016.9
20201126013812 34 290 1.7 3.5 0.00 0.08 0.00 89 1016.9
20201126013713 34 296 1.7 3.5 0.00 0.08 0.00 89 1016.9
20201126013609 34 307 0.9 5.2 0.00 0.08 0.00 89 1016.9
20201126013510 34 303 0.9 5.2 0.00 0.08 0.00 89 1016.9
20201126013410 34 310 1.7 5.2 0.00 0.08 0.00 89 1016.9
20201126013310 34 311 1.7 5.2 0.00 0.08 0.00 89 1016.9
20201126013214 34 311 3.5 5.2 0.00 0.08 0.00 89 1016.9
20201126013109 34 312 3.5 5.2 0.00 0.08 0.00 89 1016.9
20201126013020 34 317 1.7 5.2 0.00 0.08 0.00 89 1016.9
20201126012910 34 317 3.5 5.2 0.00 0.08 0.00 89 1016.9
20201126012813 34 318 3.5 5.2 0.00 0.08 0.00 89 1016.9
20201126012711 34 318 2.6 5.2 0.00 0.08 0.00 89 1016.9
20201126012615 34 319 3.5 5.2 0.00 0.08 0.00 89 1016.9
20201126012513 34 318 2.6 5.2 0.00 0.08 0.00 89 1016.9
20201126012411 34 321 2.6 5.2 0.00 0.08 0.00 89 1016.9
20201126012311 34 320 2.6 5.2 0.00 0.08 0.00 89 1016.9
20201126012210 34 322 3.5 5.2 0.00 0.08 0.00 89 1016.9
20201126012110 34 322 3.5 5.2 0.00 0.08 0.00 89 1016.9
20201126012016 34 323 3.5 5.2 0.00 0.08 0.00 89 1016.9
20201126011918 34 318 2.6 5.2 0.00 0.08 0.00 89 1016.9
20201126011811 34 318 4.3 4.3 0.00 0.08 0.00 89 1016.9
20201126011711 34 316 4.3 4.3 0.00 0.08 0.00 89 1016.9
20201126011613 34 313 2.6 4.3 0.00 0.08 0.00 89 1016.9
20201126011523 34 308 2.6 4.3 0.00 0.08 0.00 89 1016.9
20201126011419 34 297 2.6 3.5 0.00 0.08 0.00 89 1016.9
20201126011312 34 294 2.6 3.5 0.00 0.08 0.00 89 1016.9
20201126011218 34 293 1.7 2.6 0.00 0.08 0.00 89 1016.9
20201126011116 34 294 1.7 4.3 0.00 0.08 0.00 89 1016.9
20201126011022 34 290 1.7 4.3 0.00 0.08 0.00 89 1016.9
20201126010912 34 293 1.7 4.3 0.00 0.08 0.00 89 1016.9
20201126010817 34 294 0.9 4.3 0.00 0.08 0.00 89 1016.9
20201126010714 34 294 0.9 4.3 0.00 0.08 0.00 89 1016.9
20201126010610 34 297 1.7 4.3 0.00 0.08 0.00 89 1016.9
20201126010538 34 303 0.9 4.3 0.00 0.08 0.00 89 1016.9
20201126010410 34 309 1.7 4.3 0.00 0.08 0.00 89 1016.9
20201126010310 34 322 1.7 4.3 0.00 0.08 0.00 89 1016.9
20201126010229 34 322 1.7 4.3 0.00 0.08 0.00 89 1016.9
20201126010117 34 322 3.5 4.3 0.00 0.08 0.00 89 1016.9
20201126010021 34 325 0.9 2.6 0.00 0.08 0.00 89 1016.9
20201126005913 34 324 1.7 2.6 0.00 0.08 0.00 89 1016.9
20201126005811 34 326 1.7 2.6 0.00 0.08 0.00 89 1016.9
20201126005728 34 329 0.9 2.6 0.00 0.08 0.00 89 1016.9
20201126005619 34 331 0.9 2.6 0.00 0.08 0.00 89 1016.9
20201126005521 34 329 1.7 2.6 0.00 0.08 0.00 89 1016.9
20201126005412 34 327 1.7 2.6 0.00 0.08 0.00 89 1016.9
20201126005314 34 323 1.7 2.6 0.00 0.08 0.00 89 1016.9
20201126005216 34 321 1.7 2.6 0.00 0.08 0.00 89 1016.9
20201126005110 34 324 1.7 2.6 0.00 0.08 0.00 89 1016.9
20201126005023 34 323 1.7 3.5 0.00 0.08 0.00 89 1016.9
20201126004913 34 321 1.7 3.5 0.00 0.08 0.00 89 1016.9
20201126004810 34 323 1.7 3.5 0.00 0.08 0.00 89 1015.9
20201126004716 34 324 2.6 3.5 0.00 0.08 0.00 89 1015.9
20201126004610 34 322 1.7 3.5 0.00 0.08 0.00 89 1015.9
20201126004511 34 317 1.7 3.5 0.00 0.08 0.00 89 1015.9
20201126004417 34 312 1.7 4.3 0.00 0.08 0.00 89 1015.9
20201126004318 34 311 1.7 4.3 0.00 0.08 0.00 89 1015.9
20201126004210 34 311 1.7 4.3 0.00 0.08 0.00 89 1015.9
20201126004110 34 311 2.6 4.3 0.00 0.08 0.00 89 1015.9
20201126004019 34 310 2.6 4.3 0.00 0.08 0.00 89 1015.9
20201126003910 34 315 1.7 4.3 0.00 0.08 0.00 89 1015.9
20201126003812 34 317 2.6 4.3 0.00 0.08 0.00 89 1015.9
20201126003709 34 314 3.5 4.3 0.00 0.08 0.00 89 1015.9
20201126003610 34 313 3.5 4.3 0.00 0.08 0.00 89 1015.9
20201126003513 34 311 3.5 4.3 0.00 0.08 0.00 89 1015.9
20201126003410 34 313 1.7 4.3 0.00 0.08 0.00 89 1015.9
20201126003311 34 311 3.5 4.3 0.00 0.08 0.00 89 1016.9
20201126003210 34 314 2.6 4.3 0.00 0.08 0.00 89 1016.9
20201126003109 34 315 2.6 3.5 0.00 0.08 0.00 89 1016.9
20201126003027 34 309 1.7 2.6 0.00 0.08 0.00 89 1016.9
20201126002912 34 295 0.9 3.5 0.00 0.08 0.00 89 1016.9
20201126002810 34 295 0.9 4.3 0.00 0.08 0.00 89 1016.9
20201126002710 34 293 1.7 5.2 0.00 0.08 0.00 89 1016.9
20201126002609 34 295 0.9 5.2 0.00 0.08 0.00 89 1016.9
20201126002512 34 298 0.9 5.2 0.00 0.08 0.00 89 1016.9
20201126002409 34 300 1.7 5.2 0.00 0.08 0.00 89 1016.9
20201126002312 34 302 1.7 5.2 0.00 0.08 0.00 89 1016.9
20201126002219 34 297 1.7 5.2 0.00 0.08 0.00 89 1016.9
20201126002110 34 297 1.7 5.2 0.00 0.08 0.00 89 1016.9
20201126002023 34 296 1.7 5.2 0.00 0.08 0.00 89 1016.9
20201126001911 34 300 4.3 6.1 0.00 0.08 0.00 89 1016.9
20201126001810 34 299 4.3 6.1 0.00 0.08 0.00 89 1016.9
20201126001712 34 303 1.7 6.1 0.00 0.08 0.00 89 1016.9
20201126001610 34 304 2.6 6.1 0.00 0.08 0.00 89 1016.9
20201126001518 34 305 2.6 6.1 0.00 0.08 0.00 88 1016.9
20201126001409 34 309 2.6 6.1 0.00 0.08 0.00 89 1016.9
20201126001309 34 311 2.6 6.1 0.00 0.08 0.00 89 1016.9
20201126001210 34 314 2.6 6.1 0.00 0.08 0.00 89 1016.9
20201126001113 34 314 4.3 6.1 0.00 0.08 0.00 89 1016.9
20201126001027 34 317 4.3 6.1 0.00 0.08 0.00 89 1016.9
20201126000914 34 319 4.3 5.2 0.00 0.08 0.00 89 1016.9
20201126000811 34 320 4.3 5.2 0.00 0.08 0.00 89 1016.9
20201126000710 34 323 4.3 5.2 0.00 0.08 0.00 89 1016.9
20201126000610 34 326 3.5 5.2 0.00 0.08 0.00 89 1016.9
20201126000522 34 324 3.5 5.2 0.00 0.08 0.00 89 1016.9
20201126000412 34 324 3.5 5.2 0.00 0.08 0.00 89 1016.9
20201126000309 34 326 5.2 5.2 0.00 0.08 0.00 89 1016.9
20201126000217 34 327 2.6 5.2 0.00 0.08 0.00 89 1016.9
20201126000113 34 327 3.5 5.2 0.00 0.08 0.00 89 1016.9
20201126000020 34 326 3.5 5.2 0.00 0.08 0.00 89 1016.9
20201125235910 34 327 3.5 5.2 0.00 0.08 0.00 89 1016.9
20201125235810 35 325 2.6 5.2 0.00 0.08 0.00 89 1016.9
20201125235710 34 326 3.5 5.2 0.00 0.08 0.00 89 1016.9
20201125235618 35 327 2.6 5.2 0.00 0.08 0.00 89 1016.9
20201125235520 34 330 2.6 5.2 0.00 0.08 0.00 89 1016.9
20201125235412 34 333 2.6 5.2 0.00 0.08 0.00 89 1016.9
20201125235310 35 331 2.6 5.2 0.00 0.08 0.00 89 1016.9
20201125235217 35 331 4.3 5.2 0.00 0.08 0.00 89 1016.9
20201125235110 35 333 3.5 4.3 0.00 0.08 0.00 89 1016.9
20201125235020 35 341 3.5 4.3 0.00 0.08 0.00 89 1016.9
20201125234913 35 342 3.5 4.3 0.00 0.08 0.00 89 1016.9
20201125234811 35 348 2.6 4.3 0.00 0.08 0.00 89 1015.9
20201125234710 34 343 3.5 4.3 0.00 0.08 0.00 89 1015.9
20201125234610 34 340 3.5 4.3 0.00 0.08 0.00 89 1015.9
20201125234519 35 336 2.6 3.5 0.00 0.08 0.00 89 1015.9
20201125234409 34 328 1.7 3.5 0.00 0.08 0.00 89 1015.9
20201125234310 34 327 2.6 3.5 0.00 0.08 0.00 89 1015.9
20201125234212 34 329 2.6 3.5 0.00 0.08 0.00 89 1015.9
20201125234110 34 330 2.6 3.5 0.00 0.08 0.00 89 1015.9
20201125234022 34 328 1.7 3.5 0.00 0.08 0.00 89 1015.9
20201125233917 34 320 1.7 3.5 0.00 0.08 0.00 89 1015.9
20201125233809 34 317 0.9 3.5 0.00 0.08 0.00 89 1015.9
20201125233710 34 317 0.9 3.5 0.00 0.08 0.00 89 1015.9
20201125233610 34 318 1.7 3.5 0.00 0.08 0.00 90 1015.9
20201125233518 35 317 1.7 3.5 0.00 0.08 0.00 90 1015.9
20201125233409 35 320 1.7 2.6 0.00 0.08 0.00 90 1015.9
20201125233310 35 312 1.7 2.6 0.00 0.08 0.00 90 1015.9
20201125233211 35 312 1.7 2.6 0.00 0.08 0.00 90 1015.9
20201125233110 35 311 0.9 1.7 0.00 0.08 0.00 90 1015.9
20201125233021 35 313 0.9 1.7 0.00 0.08 0.00 90 1015.9
20201125232911 34 313 0.0 2.6 0.00 0.08 0.00 90 1015.9
20201125232809 34 314 0.0 2.6 0.00 0.08 0.00 90 1015.9
20201125232715 35 315 1.7 2.6 0.00 0.08 0.00 90 1015.9
20201125232609 34 314 0.9 2.6 0.00 0.08 0.00 90 1015.9
20201125232513 34 316 0.9 2.6 0.00 0.08 0.00 90 1015.9
20201125232410 35 317 0.9 2.6 0.00 0.08 0.00 90 1015.9
20201125232311 35 319 1.7 2.6 0.00 0.08 0.00 91 1015.9
20201125232209 35 317 1.7 2.6 0.00 0.08 0.00 91 1015.9
20201125232110 35 317 1.7 2.6 0.00 0.08 0.00 91 1015.9
20201125232017 35 316 1.7 2.6 0.00 0.08 0.00 91 1015.9
20201125231910 35 315 2.6 2.6 0.00 0.08 0.00 91 1015.9
20201125231810 35 314 2.6 2.6 0.00 0.08 0.00 91 1016.9
20201125231710 34 312 1.7 2.6 0.00 0.08 0.00 91 1016.9
20201125231609 34 312 1.7 2.6 0.00 0.08 0.00 91 1016.9
20201125231520 34 313 1.7 2.6 0.00 0.08 0.00 91 1016.9
20201125231410 34 311 0.9 2.6 0.00 0.08 0.00 91 1016.9
20201125231314 34 307 0.9 2.6 0.00 0.08 0.00 91 1016.9
20201125231212 34 307 0.9 2.6 0.00 0.08 0.00 91 1016.9
20201125231110 34 308 0.9 2.6 0.00 0.08 0.00 91 1016.9
20201125231022 34 313 1.7 2.6 0.00 0.08 0.00 91 1016.9
20201125230911 34 318 0.9 2.6 0.00 0.08 0.00 91 1016.9
20201125230817 34 323 1.7 2.6 0.00 0.08 0.00 91 1016.9
20201125230712 34 324 1.7 2.6 0.00 0.08 0.00 91 1016.9
20201125230613 34 326 1.7 2.6 0.00 0.08 0.00 91 1016.9
20201125230513 34 341 1.7 1.7 0.00 0.08 0.00 91 1016.9
20201125230410 34 6 1.7 1.7 0.00 0.08 0.00 91 1016.9
20201125230309 34 45 0.0 0.9 0.00 0.08 0.00 92 1015.9
20201125230210 34 45 0.0 0.9 0.00 0.08 0.00 92 1015.9
20201125230116 34 45 0.9 1.7 0.00 0.08 0.00 92 1015.9
20201125230021 34 45 0.9 1.7 0.00 0.08 0.00 92 1015.9
20201125225910 34 45 0.0 1.7 0.00 0.08 0.00 92 1015.9
20201125225809 34 45 0.0 1.7 0.00 0.08 0.00 92 1015.9
20201125225709 34 45 0.0 1.7 0.00 0.08 0.00 92 1015.9
20201125225615 34 45 0.0 1.7 0.00 0.08 0.00 92 1015.9
20201125225515 34 45 0.0 1.7 0.00 0.08 0.00 92 1015.9
20201125225411 34 45 0.0 1.7 0.00 0.08 0.00 92 1015.9
20201125225315 34 45 0.9 1.7 0.00 0.08 0.00 92 1015.9
20201125225209 34 45 0.9 1.7 0.00 0.08 0.00 92 1015.9
20201125225114 34 45 0.9 1.7 0.00 0.08 0.00 92 1015.9
20201125225020 34 45 0.0 1.7 0.00 0.08 0.00 92 1015.9
20201125224910 34 45 0.0 0.9 0.00 0.08 0.00 92 1015.9
20201125224810 34 45 0.0 0.9 0.00 0.08 0.00 92 1016.9
20201125224713 34 45 0.9 0.9 0.00 0.08 0.00 92 1016.9
20201125224611 34 45 0.9 0.9 0.00 0.08 0.00 92 1016.9
20201125224512 34 45 0.0 0.9 0.00 0.08 0.00 92 1016.9
20201125224414 34 45 0.0 0.9 0.00 0.08 0.00 92 1016.9
20201125224310 34 45 0.0 0.9 0.00 0.08 0.00 92 1016.9
20201125224210 34 0 0.0 0.0 0.00 0.08 0.00 92 1016.9
20201125224109 34 0 0.0 0.0 0.00 0.08 0.00 92 1016.9
20201125224022 34 0 0.0 0.0 0.00 0.08 0.00 92 1016.9
20201125223910 34 0 0.0 0.0 0.00 0.08 0.00 92 1016.9
20201125223810 34 45 0.0 0.9 0.00 0.08 0.00 92 1016.9
20201125223712 34 45 0.0 1.7 0.00 0.08 0.00 92 1016.9
20201125223610 34 45 0.0 1.7 0.00 0.08 0.00 92 1016.9
20201125223523 34 45 0.0 1.7 0.00 0.08 0.00 92 1016.9
20201125223410 34 45 0.0 1.7 0.00 0.08 0.00 92 1016.9
20201125223310 34 40 0.0 1.7 0.00 0.08 0.00 92 1015.9
20201125223210 34 32 0.0 1.7 0.00 0.08 0.00 92 1015.9
20201125223112 34 28 0.0 1.7 0.00 0.08 0.00 92 1015.9
20201125223016 34 21 0.9 2.6 0.00 0.08 0.00 92 1015.9
20201125222910 34 17 0.9 2.6 0.00 0.08 0.00 92 1015.9
20201125222809 34 11 0.9 2.6 0.00 0.08 0.00 93 1015.9
20201125222711 34 5 0.9 2.6 0.00 0.08 0.00 93 1015.9
20201125222611 34 349 0.0 2.6 0.00 0.08 0.00 93 1015.9
20201125222518 34 348 0.0 2.6 0.00 0.08 0.00 93 1015.9
20201125222410 34 342 0.9 2.6 0.00 0.08 0.00 93 1015.9
20201125222313 34 337 0.9 2.6 0.00 0.08 0.00 93 1015.9
20201125222209 34 333 1.7 2.6 0.00 0.08 0.00 93 1015.9
20201125222110 34 329 1.7 2.6 0.00 0.08 0.00 93 1015.9
20201125222020 34 324 0.9 2.6 0.00 0.08 0.00 93 1015.9
20201125221910 34 320 0.9 2.6 0.00 0.08 0.00 93 1015.9
20201125221811 34 318 1.7 1.7 0.00 0.08 0.00 93 1015.9
20201125221709 34 318 1.7 1.7 0.00 0.08 0.00 93 1015.9
20201125221609 34 319 0.0 1.7 0.00 0.08 0.00 93 1015.9
20201125221522 34 320 0.0 1.7 0.00 0.08 0.00 93 1015.9
20201125221410 34 320 0.9 1.7 0.00 0.08 0.00 93 1015.9
20201125221310 34 322 0.9 1.7 0.00 0.08 0.00 93 1015.9
20201125221209 34 326 1.7 1.7 0.00 0.08 0.00 93 1015.9
20201125221109 34 336 0.9 1.7 0.00 0.08 0.00 93 1015.9
20201125221020 34 360 0.0 0.9 0.00 0.08 0.00 93 1015.9
20201125220911 34 360 0.0 0.9 0.00 0.08 0.00 93 1015.9
20201125220810 34 360 0.0 1.7 0.00 0.08 0.00 93 1015.9
20201125220713 34 360 0.0 1.7 0.00 0.08 0.00 93 1015.9
20201125220612 34 360 0.0 1.7 0.00 0.08 0.00 93 1015.9
20201125220510 34 360 0.0 1.7 0.00 0.08 0.00 93 1015.9
20201125220410 34 360 0.0 1.7 0.00 0.08 0.00 93 1015.9
20201125220310 34 360 0.0 1.7 0.00 0.08 0.00 93 1015.9
20201125220210 34 360 0.0 1.7 0.00 0.08 0.00 93 1015.9
20201125220112 34 2 0.0 1.7 0.00 0.08 0.00 93 1015.9
20201125220020 34 9 0.9 1.7 0.00 0.08 0.00 93 1015.9
20201125215914 34 9 0.9 1.7 0.00 0.08 0.00 93 1015.9
20201125215810 34 11 0.9 1.7 0.00 0.08 0.00 93 1015.9
20201125215711 34 11 0.9 1.7 0.00 0.08 0.00 93 1015.9
20201125215611 34 9 0.9 1.7 0.00 0.08 0.00 93 1015.9
20201125215511 34 17 0.0 2.6 0.00 0.08 0.00 93 1015.9
20201125215413 34 22 0.0 3.5 0.00 0.08 0.00 93 1015.9
20201125215319 34 24 1.7 3.5 0.00 0.08 0.00 93 1015.9
20201125215214 34 20 1.7 3.5 0.00 0.08 0.00 93 1015.9
20201125215116 34 11 1.7 3.5 0.00 0.08 0.00 94 1015.9
20201125215019 34 6 1.7 3.5 0.00 0.08 0.00 94 1015.9
20201125214910 34 355 0.9 3.5 0.00 0.08 0.00 94 1015.9
20201125214813 34 347 0.9 3.5 0.00 0.08 0.00 93 1015.9
20201125214710 34 331 0.9 3.5 0.00 0.08 0.00 94 1015.9
20201125214615 34 324 0.9 3.5 0.00 0.08 0.00 93 1015.9
20201125214523 34 325 1.7 3.5 0.00 0.08 0.00 93 1015.9
20201125214411 34 313 0.9 2.6 0.00 0.08 0.00 94 1015.9
20201125214312 34 312 1.7 2.6 0.00 0.08 0.00 93 1015.9
20201125214210 34 314 1.7 2.6 0.00 0.08 0.00 93 1015.9
20201125214110 34 316 0.9 2.6 0.00 0.08 0.00 93 1015.9
20201125214028 34 315 0.9 2.6 0.00 0.08 0.00 93 1015.9
20201125213912 34 327 0.9 2.6 0.00 0.08 0.00 93 1015.9
20201125213810 34 335 0.9 2.6 0.00 0.08 0.00 93 1015.9
20201125213711 34 351 0.9 2.6 0.00 0.08 0.00 93 1015.9
20201125213613 34 1 0.9 2.6 0.00 0.08 0.00 93 1015.9
20201125213513 34 1 0.9 2.6 0.00 0.08 0.00 93 1015.9
20201125213420 34 1 1.7 2.6 0.00 0.08 0.00 93 1015.9
20201125213310 34 357 0.9 2.6 0.00 0.08 0.00 93 1015.9
20201125213210 34 351 0.9 3.5 0.00 0.08 0.00 93 1015.9
20201125213110 34 347 0.9 4.3 0.00 0.08 0.00 93 1015.9
20201125213016 34 344 0.9 4.3 0.00 0.08 0.00 93 1015.9
20201125212914 34 343 1.7 4.3 0.00 0.08 0.00 93 1015.9
20201125212812 34 342 1.7 4.3 0.00 0.08 0.00 93 1015.9
20201125212710 34 341 0.9 4.3 0.00 0.08 0.00 93 1015.9
20201125212612 34 343 0.9 4.3 0.00 0.08 0.00 93 1015.9
20201125212511 34 347 1.7 4.3 0.00 0.08 0.00 93 1015.9
20201125212409 34 346 1.7 4.3 0.00 0.08 0.00 93 1015.9
20201125212313 34 348 2.6 4.3 0.00 0.08 0.00 93 1015.9
20201125212213 34 359 2.6 4.3 0.00 0.08 0.00 93 1015.9
20201125212116 34 5 0.9 1.7 0.00 0.08 0.00 93 1015.9
20201125212028 34 12 1.7 2.6 0.00 0.08 0.00 93 1015.9
20201125211915 34 13 1.7 2.6 0.00 0.08 0.00 93 1015.9
20201125211818 34 7 0.9 3.5 0.00 0.08 0.00 93 1015.9
20201125211711 34 360 0.9 3.5 0.00 0.08 0.00 93 1015.9
20201125211612 34 347 1.7 3.5 0.00 0.08 0.00 93 1015.9
20201125211520 34 338 0.9 3.5 0.00 0.08 0.00 92 1015.9
20201125211412 34 330 0.9 3.5 0.00 0.08 0.00 92 1015.9
20201125211309 34 327 1.7 3.5 0.00 0.08 0.00 92 1015.9
20201125211209 34 326 1.7 3.5 0.00 0.08 0.00 92 1015.9
20201125211117 34 324 1.7 3.5 0.00 0.08 0.00 92 1015.9
20201125211027 34 330 2.6 6.1 0.00 0.08 0.00 92 1015.9
20201125210913 34 332 2.6 6.1 0.00 0.08 0.00 92 1015.9
20201125210813 34 330 2.6 6.1 0.00 0.08 0.00 92 1015.9
20201125210710 34 329 2.6 6.1 0.00 0.08 0.00 92 1015.9
20201125210609 34 328 2.6 6.1 0.00 0.08 0.00 92 1015.9
20201125210522 34 328 2.6 6.1 0.00 0.08 0.00 92 1015.9
20201125210415 34 329 2.6 6.1 0.00 0.08 0.00 92 1015.9
20201125210314 34 327 3.5 6.1 0.00 0.08 0.00 92 1015.9
20201125210210 34 328 3.5 6.1 0.00 0.08 0.00 92 1015.9
20201125210110 34 331 3.5 6.1 0.00 0.08 0.00 91 1015.9
20201125210033 34 331 3.5 6.1 0.00 0.08 0.00 91 1015.9
20201125205911 34 327 4.3 5.2 0.00 0.08 0.00 91 1015.9
20201125205812 34 325 4.3 5.2 0.00 0.08 0.00 91 1015.9
20201125205711 34 324 2.6 3.5 0.00 0.08 0.00 91 1015.9
20201125205610 34 328 0.0 3.5 0.00 0.08 0.00 91 1015.9
20201125205525 34 329 0.0 3.5 0.00 0.08 0.00 91 1015.9
20201125205413 34 332 2.6 3.5 0.00 0.08 0.00 91 1015.9
20201125205310 34 334 2.6 3.5 0.00 0.08 0.00 90 1015.9
20201125205210 34 337 3.5 3.5 0.00 0.08 0.00 90 1015.9
20201125205114 34 335 2.6 3.5 0.00 0.08 0.00 90 1015.9
20201125205013 34 334 2.6 3.5 0.00 0.08 0.00 90 1015.9
20201125204909 34 343 2.6 3.5 0.00 0.08 0.00 90 1015.9
20201125204811 34 350 2.6 3.5 0.00 0.08 0.00 90 1015.9
20201125204714 34 356 2.6 3.5 0.00 0.08 0.00 89 1015.9
20201125204613 34 360 2.6 3.5 0.00 0.08 0.00 89 1015.9
20201125204517 34 357 2.6 3.5 0.00 0.08 0.00 89 1015.9
20201125204412 34 356 2.6 3.5 0.00 0.08 0.00 89 1015.9
20201125204309 34 352 3.5 5.2 0.00 0.08 0.00 89 1015.9
20201125204211 34 345 3.5 5.2 0.00 0.08 0.00 89 1015.9
20201125204118 34 338 2.6 5.2 0.00 0.08 0.00 89 1015.9
20201125204018 34 338 2.6 5.2 0.00 0.08 0.00 89 1015.9
20201125203910 34 331 2.6 5.2 0.00 0.08 0.00 89 1015.9
20201125203812 34 326 2.6 5.2 0.00 0.08 0.00 89 1015.9
20201125203711 34 325 2.6 5.2 0.00 0.08 0.00 89 1015.9
20201125203612 34 322 2.6 5.2 0.00 0.08 0.00 89 1015.9
20201125203519 34 321 2.6 5.2 0.00 0.08 0.00 89 1015.9
20201125203412 34 321 2.6 5.2 0.00 0.08 0.00 89 1015.9
20201125203311 34 317 4.3 5.2 0.00 0.08 0.00 89 1015.9
20201125203211 34 321 2.6 5.2 0.00 0.08 0.00 89 1015.9
20201125203110 34 321 1.7 5.2 0.00 0.08 0.00 89 1015.9
20201125203024 34 321 1.7 5.2 0.00 0.08 0.00 89 1015.9
20201125202914 34 323 2.6 5.2 0.00 0.08 0.00 88 1015.9
20201125202810 34 320 1.7 5.2 0.00 0.08 0.00 88 1015.9
20201125202710 34 315 2.6 5.2 0.00 0.08 0.00 88 1015.9
20201125202609 34 315 2.6 5.2 0.00 0.08 0.00 88 1015.9
20201125202512 34 315 3.5 5.2 0.00 0.08 0.00 88 1015.9
20201125202411 34 317 2.6 4.3 0.00 0.08 0.00 88 1015.9
20201125202310 34 317 2.6 4.3 0.00 0.08 0.00 88 1015.9
20201125202211 34 315 4.3 4.3 0.00 0.08 0.00 88 1015.9
20201125202110 34 311 4.3 4.3 0.00 0.08 0.00 88 1015.9
20201125202019 34 314 2.6 4.3 0.00 0.08 0.00 88 1015.9
20201125201912 34 314 2.6 4.3 0.00 0.08 0.00 88 1015.9
20201125201810 34 314 2.6 3.5 0.00 0.08 0.00 89 1015.9
20201125201711 34 314 3.5 3.5 0.00 0.08 0.00 89 1015.9
20201125201611 34 314 2.6 4.3 0.00 0.08 0.00 88 1015.9
20201125201519 34 310 2.6 4.3 0.00 0.08 0.00 88 1015.9
20201125201417 34 310 2.6 4.3 0.00 0.12 0.00 88 1015.9
20201125201310 34 306 2.6 4.3 0.00 0.12 0.00 88 1015.9
20201125201210 34 305 2.6 4.3 0.00 0.12 0.00 88 1015.9
20201125201111 34 314 1.7 4.3 0.00 0.12 0.00 88 1015.9
20201125201023 34 314 3.5 4.3 0.00 0.12 0.00 88 1015.9
20201125200910 34 312 2.6 4.3 0.00 0.12 0.00 88 1015.9
20201125200810 34 310 1.7 4.3 0.00 0.12 0.00 88 1015.9
20201125200712 34 310 1.7 4.3 0.00 0.12 0.00 88 1015.9
20201125200615 34 308 1.7 3.5 0.00 0.12 0.00 88 1015.9
20201125200516 34 308 1.7 3.5 0.00 0.12 0.00 88 1015.9
20201125200414 34 307 1.7 3.5 0.00 0.12 0.00 88 1015.9
20201125200313 34 303 1.7 6.1 0.00 0.12 0.00 88 1015.9
20201125200214 34 306 1.7 6.1 0.00 0.12 0.00 88 1015.9
20201125200109 34 303 2.6 6.1 0.00 0.12 0.00 88 1015.9
20201125200053 34 302 2.6 6.1 0.00 0.12 0.00 88 1015.9
20201125195913 34 304 2.6 6.1 0.00 0.12 0.12 88 1015.9
20201125195810 34 308 3.5 6.1 0.00 0.12 0.12 88 1015.9
20201125195709 34 318 1.7 6.1 0.00 0.12 0.12 88 1015.9
20201125195610 34 323 1.7 6.1 0.00 0.12 0.12 88 1015.9
20201125195513 34 325 3.5 6.1 0.00 0.12 0.12 88 1015.9
20201125195416 34 329 2.6 6.1 0.00 0.12 0.12 87 1015.9
20201125195311 34 333 3.5 5.2 0.00 0.12 0.12 87 1015.9
20201125195214 34 336 2.6 5.2 0.00 0.12 0.12 87 1015.9
20201125195109 34 338 2.6 5.2 0.00 0.12 0.12 87 1015.9
20201125195012 34 338 3.5 5.2 0.00 0.12 0.12 87 1015.9
20201125194910 34 342 3.5 5.2 0.00 0.12 0.12 87 1015.9
20201125194810 34 343 2.6 5.2 0.00 0.12 0.12 87 1015.9
20201125194710 34 342 2.6 5.2 0.00 0.12 0.12 88 1015.9
20201125194612 34 340 3.5 5.2 0.00 0.12 0.12 88 1015.9
20201125194526 34 339 2.6 5.2 0.00 0.12 0.12 88 1015.9
20201125194411 34 339 3.5 5.2 0.00 0.12 0.12 88 1015.9
20201125194315 34 336 3.5 5.2 0.00 0.12 0.12 88 1015.9
20201125194215 34 330 2.6 5.2 0.00 0.12 0.12 88 1015.9
20201125194110 34 328 2.6 5.2 0.00 0.12 0.12 88 1015.9
20201125194019 34 328 2.6 4.3 0.00 0.12 0.12 88 1015.9
20201125193909 34 318 3.5 4.3 0.00 0.12 0.12 88 1015.9
20201125193813 34 294 1.7 4.3 0.00 0.12 0.12 89 1015.9
20201125193711 34 293 1.7 4.3 0.00 0.12 0.12 89 1015.9
20201125193615 34 293 1.7 4.3 0.00 0.12 0.12 89 1015.9
20201125193518 34 293 2.6 4.3 0.00 0.12 0.12 89 1015.9
20201125193416 34 288 2.6 4.3 0.00 0.12 0.12 89 1015.9
20201125193311 34 284 2.6 4.3 0.00 0.12 0.12 89 1015.9
20201125193209 34 276 2.6 3.5 0.00 0.12 0.12 89 1015.9
20201125193112 34 270 0.9 3.5 0.00 0.12 0.12 89 1015.9
20201125193020 34 270 2.6 3.5 0.00 0.12 0.12 89 1015.9
20201125192910 34 272 2.6 3.5 0.00 0.12 0.12 89 1015.9
20201125192811 34 276 1.7 3.5 0.00 0.12 0.12 89 1015.9
20201125192709 34 282 1.7 3.5 0.00 0.12 0.12 89 1015.9
20201125192612 34 281 1.7 3.5 0.00 0.12 0.12 89 1015.9
20201125192514 34 292 1.7 4.3 0.00 0.12 0.12 89 1015.9
20201125192410 34 296 1.7 4.3 0.00 0.12 0.12 89 1015.9
20201125192310 34 296 1.7 4.3 0.00 0.12 0.12 88 1015.9
20201125192209 34 299 1.7 4.3 0.00 0.12 0.12 88 1015.9
20201125192113 34 311 1.7 4.3 0.00 0.12 0.12 88 1015.9
20201125192012 34 314 1.7 4.3 0.00 0.12 0.12 88 1015.9
20201125191910 34 320 1.7 4.3 0.00 0.12 0.12 88 1015.9
20201125191811 34 329 2.6 4.3 0.00 0.12 0.12 88 1015.9
20201125191713 34 330 2.6 4.3 0.00 0.12 0.12 88 1015.9
20201125191609 34 328 3.5 5.2 0.00 0.12 0.12 88 1015.9
20201125191514 34 334 2.6 5.2 0.00 0.12 0.12 88 1015.9
20201125191410 34 342 1.7 5.2 0.00 0.12 0.12 88 1015.9
20201125191311 34 342 1.7 5.2 0.00 0.12 0.12 88 1015.9
20201125191210 34 343 1.7 5.2 0.00 0.12 0.12 88 1015.9
20201125191117 34 343 1.7 5.2 0.00 0.12 0.12 88 1015.9
20201125191021 34 337 2.6 5.2 0.00 0.12 0.12 88 1015.9
20201125190909 34 338 1.7 5.2 0.00 0.12 0.12 88 1015.9
20201125190810 34 338 3.5 5.2 0.00 0.12 0.12 88 1015.9
20201125190711 34 337 2.6 5.2 0.00 0.12 0.12 88 1015.9
20201125190610 34 341 3.5 3.5 0.00 0.12 0.12 88 1015.9
20201125190518 34 334 3.5 3.5 0.00 0.12 0.12 88 1015.9
20201125190409 34 329 2.6 3.5 0.00 0.12 0.12 88 1015.9
20201125190311 34 326 2.6 3.5 0.00 0.12 0.12 88 1015.9
20201125190210 34 325 2.6 3.5 0.00 0.12 0.12 88 1015.9
20201125190110 34 321 1.7 3.5 0.00 0.12 0.12 88 1015.9
20201125190012 34 321 3.5 3.5 0.00 0.12 0.12 88 1015.9
20201125185910 34 321 2.6 3.5 0.00 0.12 0.12 88 1015.9
20201125185809 34 314 2.6 3.5 0.00 0.12 0.12 88 1015.9
20201125185713 34 316 2.6 3.5 0.00 0.12 0.12 88 1015.9
20201125185611 34 323 3.5 3.5 0.00 0.12 0.12 88 1015.9
20201125185526 34 325 3.5 3.5 0.00 0.12 0.12 88 1015.9
20201125185410 34 324 2.6 3.5 0.00 0.12 0.12 87 1015.9
20201125185315 34 334 1.7 3.5 0.00 0.12 0.12 87 1015.9
20201125185209 33 340 0.9 3.5 0.00 0.12 0.12 87 1015.9
20201125185109 33 346 0.9 3.5 0.00 0.12 0.12 87 1015.9
20201125185010 33 351 1.7 3.5 0.00 0.12 0.12 87 1015.9
20201125184918 33 359 1.7 3.5 0.00 0.12 0.12 87 1015.9
20201125184810 33 5 2.6 3.5 0.00 0.12 0.12 87 1015.9
20201125184709 33 9 2.6 3.5 0.00 0.12 0.12 87 1015.9
20201125184609 33 18 1.7 3.5 0.00 0.12 0.12 87 1015.9
20201125184525 33 17 1.7 2.6 0.00 0.12 0.12 87 1015.9
20201125184410 33 17 1.7 2.6 0.00 0.12 0.12 87 1015.9
20201125184311 33 17 1.7 2.6 0.00 0.12 0.12 87 1015.9
20201125184210 33 17 1.7 2.6 0.00 0.12 0.12 87 1015.9
20201125184112 33 19 1.7 2.6 0.00 0.12 0.12 87 1015.9
20201125184024 33 12 1.7 2.6 0.00 0.12 0.12 87 1015.9
20201125183913 33 16 1.7 2.6 0.00 0.12 0.12 87 1015.9
20201125183811 33 19 1.7 2.6 0.00 0.12 0.12 87 1015.9
20201125183710 33 12 1.7 2.6 0.00 0.12 0.12 87 1015.9
20201125183617 34 345 1.7 2.6 0.00 0.12 0.12 87 1015.9
20201125183523 34 326 0.9 2.6 0.00 0.12 0.12 87 1015.9
20201125183409 34 306 0.9 1.7 0.00 0.12 0.12 87 1015.9
20201125183311 34 308 0.0 1.7 0.00 0.12 0.12 87 1015.9
20201125183210 34 317 0.9 1.7 0.00 0.12 0.12 87 1015.9
20201125183113 34 319 1.7 1.7 0.00 0.12 0.12 87 1015.9
20201125183018 34 326 1.7 1.7 0.00 0.12 0.12 86 1015.9
20201125182909 34 318 0.0 1.7 0.00 0.12 0.12 86 1015.9
20201125182810 34 315 0.0 1.7 0.00 0.12 0.12 86 1015.9
20201125182710 34 315 0.9 1.7 0.00 0.12 0.12 86 1015.9
20201125182610 34 315 0.9 1.7 0.00 0.12 0.12 86 1015.9
20201125182512 34 315 0.9 2.6 0.00 0.12 0.12 86 1015.9
20201125182411 34 327 0.9 2.6 0.00 0.12 0.12 86 1015.9
20201125182310 34 330 0.9 2.6 0.00 0.12 0.12 86 1015.9
20201125182209 34 329 0.9 2.6 0.00 0.12 0.12 86 1015.9
20201125182111 34 327 0.9 2.6 0.00 0.12 0.12 86 1015.9
20201125182024 34 329 0.9 2.6 0.00 0.12 0.12 86 1015.9
20201125181913 34 331 0.9 2.6 0.00 0.12 0.12 86 1015.9
20201125181810 34 337 1.7 2.6 0.00 0.12 0.12 86 1015.9
20201125181711 34 337 1.7 2.6 0.00 0.12 0.12 86 1015.9
20201125181610 34 336 1.7 2.6 0.00 0.12 0.12 86 1015.9
20201125181513 34 341 1.7 3.5 0.00 0.12 0.12 86 1015.9
20201125181410 34 340 1.7 3.5 0.00 0.12 0.12 86 1015.9
20201125181311 34 338 0.9 3.5 0.00 0.12 0.12 86 1015.9
20201125181210 34 340 0.9 3.5 0.00 0.12 0.12 86 1015.9
20201125181109 34 344 0.9 3.5 0.00 0.12 0.12 86 1015.9
20201125181015 34 343 0.9 3.5 0.00 0.12 0.12 86 1015.9
20201125180910 34 340 0.0 3.5 0.00 0.12 0.12 86 1015.9
20201125180810 34 338 0.9 3.5 0.00 0.12 0.12 86 1015.9
20201125180710 34 337 1.7 3.5 0.00 0.12 0.12 86 1015.9
20201125180612 34 342 1.7 3.5 0.00 0.12 0.12 86 1015.9
20201125180515 34 341 1.7 3.5 0.00 0.12 0.12 86 1015.9
20201125180410 34 343 1.7 3.5 0.00 0.12 0.12 86 1015.9
20201125180313 34 334 1.7 3.5 0.00 0.12 0.12 86 1014.9
20201125180212 34 333 1.7 3.5 0.00 0.12 0.12 86 1014.9
20201125180111 34 335 2.6 3.5 0.00 0.12 0.12 86 1014.9
20201125180019 34 334 2.6 3.5 0.00 0.12 0.12 86 1014.9
20201125175927 34 335 3.5 3.5 0.00 0.12 0.12 86 1014.9
20201125175814 34 338 3.5 3.5 0.00 0.12 0.12 87 1014.9
20201125175710 34 338 3.5 3.5 0.00 0.12 0.12 87 1014.9
20201125175610 34 334 2.6 3.5 0.00 0.12 0.12 87 1014.9
20201125175511 34 332 2.6 3.5 0.00 0.12 0.12 87 1014.9
20201125175416 34 329 1.7 3.5 0.00 0.12 0.12 87 1014.9
20201125175324 34 334 1.7 3.5 0.00 0.12 0.12 87 1014.9
20201125175228 34 335 2.6 3.5 0.00 0.12 0.12 87 1014.9
20201125175111 34 330 1.7 4.3 0.00 0.12 0.12 87 1014.9
20201125175020 34 332 3.5 4.3 0.00 0.12 0.12 87 1014.9
20201125174913 34 334 2.6 5.2 0.00 0.12 0.12 87 1014.9
20201125174814 34 331 2.6 5.2 0.00 0.12 0.12 87 1014.9
20201125174710 34 333 2.6 5.2 0.00 0.12 0.12 87 1014.9
20201125174615 34 335 1.7 5.2 0.00 0.12 0.12 87 1014.9
20201125174514 34 334 1.7 5.2 0.00 0.12 0.12 87 1014.9
20201125174415 34 333 2.6 5.2 0.00 0.12 0.12 87 1014.9
20201125174317 34 331 3.5 5.2 0.00 0.12 0.12 88 1014.9
20201125174215 34 332 4.3 5.2 0.00 0.12 0.12 87 1014.9
20201125174110 34 335 3.5 5.2 0.00 0.12 0.12 87 1014.9
20201125174021 34 336 3.5 5.2 0.00 0.12 0.12 87 1014.9
20201125173911 34 332 4.3 5.2 0.00 0.12 0.12 88 1014.9
20201125173815 34 333 3.5 5.2 0.00 0.12 0.12 88 1014.9
20201125173709 34 328 3.5 3.5 0.00 0.12 0.12 88 1014.9
20201125173614 34 323 2.6 3.5 0.00 0.12 0.12 88 1014.9
20201125173516 34 324 2.6 3.5 0.00 0.12 0.12 88 1014.9
20201125173410 34 322 2.6 3.5 0.00 0.12 0.12 88 1014.9
20201125173311 34 319 2.6 3.5 0.00 0.12 0.12 88 1015.9
20201125173210 34 311 1.7 3.5 0.00 0.12 0.12 88 1015.9
20201125173109 34 308 1.7 3.5 0.00 0.12 0.12 88 1015.9
20201125173024 34 301 1.7 3.5 0.00 0.12 0.12 88 1015.9
20201125172918 34 300 0.9 3.5 0.00 0.12 0.12 88 1015.9
20201125172810 34 300 1.7 3.5 0.00 0.12 0.12 88 1015.9
20201125172710 34 298 1.7 3.5 0.00 0.12 0.12 88 1015.9
20201125172610 34 297 1.7 3.5 0.00 0.12 0.12 88 1015.9
20201125172516 34 294 1.7 3.5 0.00 0.12 0.12 88 1015.9
20201125172409 34 291 1.7 3.5 0.00 0.12 0.12 88 1015.9
20201125172310 34 291 1.7 2.6 0.00 0.12 0.12 88 1015.9
20201125172210 34 296 1.7 2.6 0.00 0.12 0.12 88 1015.9
20201125172111 34 295 0.9 2.6 0.00 0.12 0.12 88 1015.9
20201125172022 34 297 0.9 2.6 0.00 0.12 0.12 88 1015.9
20201125171909 34 293 0.9 2.6 0.00 0.12 0.12 88 1015.9
20201125171809 34 289 0.0 2.6 0.00 0.12 0.12 88 1015.9
20201125171712 34 287 0.0 2.6 0.00 0.12 0.12 88 1015.9
20201125171613 34 293 0.0 2.6 0.00 0.12 0.12 88 1015.9
20201125171511 34 295 1.7 3.5 0.00 0.12 0.12 88 1015.9
20201125171410 34 295 1.7 3.5 0.00 0.12 0.12 88 1015.9
20201125171309 34 292 0.9 3.5 0.00 0.12 0.12 88 1015.9
20201125171210 34 291 0.0 3.5 0.00 0.12 0.12 88 1015.9
20201125171112 34 294 0.0 3.5 0.00 0.12 0.12 88 1015.9
20201125171010 34 298 0.9 3.5 0.00 0.12 0.12 88 1015.9
20201125170910 34 307 0.9 3.5 0.00 0.12 0.12 88 1015.9
20201125170812 34 310 0.9 3.5 0.00 0.12 0.12 88 1015.9
20201125170715 34 312 0.9 3.5 0.00 0.12 0.12 88 1015.9
20201125170611 34 313 0.9 3.5 0.00 0.12 0.12 88 1015.9
20201125170522 34 315 0.9 3.5 0.00 0.12 0.12 88 1015.9
20201125170410 34 318 0.9 3.5 0.00 0.12 0.12 88 1015.9
20201125170311 35 324 0.9 4.3 0.00 0.12 0.12 88 1014.9
20201125170214 34 325 1.7 4.3 0.00 0.12 0.12 88 1014.9
20201125170109 34 324 2.6 4.3 0.00 0.12 0.12 88 1014.9
20201125170022 34 325 2.6 4.3 0.00 0.12 0.12 88 1014.9
20201125165915 34 326 1.7 4.3 0.00 0.12 0.12 88 1014.9
20201125165814 34 326 2.6 4.3 0.00 0.12 0.12 88 1014.9
20201125165713 34 326 2.6 4.3 0.00 0.12 0.12 88 1014.9
20201125165609 35 326 1.7 4.3 0.00 0.12 0.12 88 1014.9
20201125165521 34 322 3.5 4.3 0.00 0.12 0.12 88 1014.9
20201125165424 34 326 3.5 4.3 0.00 0.12 0.12 88 1014.9
20201125165329 34 322 2.6 3.5 0.00 0.12 0.12 88 1014.9
20201125165210 34 322 2.6 3.5 0.00 0.12 0.12 88 1014.9
20201125165110 34 322 1.7 3.5 0.00 0.12 0.12 88 1014.9
20201125165018 34 325 1.7 3.5 0.00 0.12 0.12 88 1014.9
20201125164911 34 322 0.9 3.5 0.00 0.12 0.12 88 1014.9
20201125164818 34 322 0.9 3.5 0.00 0.12 0.12 89 1013.9
20201125164710 35 323 2.6 3.5 0.00 0.12 0.12 89 1013.9
20201125164619 34 321 2.6 3.5 0.00 0.12 0.12 89 1013.9
20201125164511 34 322 2.6 3.5 0.00 0.12 0.12 89 1013.9
20201125164411 34 318 1.7 2.6 0.00 0.12 0.12 89 1013.9
20201125164310 35 318 0.9 3.5 0.00 0.12 0.12 89 1013.9
20201125164216 35 319 0.9 3.5 0.00 0.12 0.12 89 1013.9
20201125164116 35 319 0.9 3.5 0.00 0.12 0.12 89 1013.9
20201125164021 34 312 2.6 3.5 0.00 0.12 0.12 89 1013.9
20201125163910 34 313 1.7 3.5 0.00 0.12 0.12 89 1013.9
20201125163810 34 313 1.7 3.5 0.00 0.12 0.12 89 1013.9
20201125163713 34 316 1.7 3.5 0.00 0.12 0.12 89 1013.9
20201125163613 34 321 1.7 3.5 0.00 0.12 0.12 89 1013.9
20201125163519 34 322 1.7 3.5 0.00 0.12 0.12 89 1013.9
20201125163410 34 323 2.6 3.5 0.00 0.12 0.12 89 1013.9
20201125163312 34 324 1.7 3.5 0.00 0.12 0.12 89 1014.9
20201125163214 34 323 1.7 3.5 0.00 0.12 0.12 90 1014.9
20201125163110 34 328 1.7 3.5 0.00 0.12 0.12 90 1014.9
20201125163011 34 330 1.7 3.5 0.00 0.12 0.12 90 1014.9
20201125162910 34 330 1.7 3.5 0.00 0.12 0.12 90 1014.9
20201125162810 34 334 1.7 3.5 0.00 0.12 0.12 90 1014.9
20201125162710 34 335 2.6 3.5 0.00 0.12 0.12 90 1014.9
20201125162611 34 334 2.6 3.5 0.00 0.12 0.12 90 1014.9
20201125162512 34 335 1.7 3.5 0.00 0.12 0.12 91 1014.9
20201125162411 34 336 2.6 3.5 0.00 0.12 0.12 91 1014.9
20201125162310 34 336 2.6 3.5 0.00 0.12 0.12 91 1014.9
20201125162214 34 338 1.7 3.5 0.00 0.12 0.12 91 1014.9
20201125162109 34 332 2.6 3.5 0.00 0.12 0.12 91 1014.9
20201125162020 34 334 2.6 3.5 0.00 0.12 0.12 92 1014.9
20201125161909 34 336 3.5 3.5 0.00 0.12 0.12 92 1014.9
20201125161810 34 329 2.6 3.5 0.00 0.12 0.12 92 1014.9
20201125161710 34 329 2.6 3.5 0.00 0.12 0.12 92 1014.9
20201125161612 34 333 1.7 2.6 0.00 0.12 0.12 92 1014.9
20201125161509 34 333 1.7 2.6 0.00 0.12 0.12 92 1014.9
20201125161409 34 335 1.7 2.6 0.00 0.12 0.12 92 1014.9
20201125161310 34 342 1.7 3.5 0.00 0.12 0.12 92 1014.9
20201125161211 34 343 1.7 3.5 0.00 0.12 0.12 92 1014.9
20201125161110 34 345 1.7 3.5 0.00 0.12 0.12 93 1014.9
20201125161019 34 344 1.7 3.5 0.00 0.12 0.12 93 1014.9
20201125160909 34 341 0.9 3.5 0.00 0.12 0.12 93 1014.9
20201125160811 34 338 1.7 3.5 0.00 0.12 0.12 93 1014.9
20201125160709 34 338 0.9 3.5 0.00 0.12 0.12 93 1014.9
20201125160610 34 333 1.7 3.5 0.00 0.12 0.12 93 1014.9
20201125160517 34 330 0.9 3.5 0.00 0.12 0.12 94 1014.9
20201125160412 34 326 0.9 3.5 0.00 0.12 0.12 94 1014.9
20201125160309 34 326 2.6 3.5 0.00 0.12 0.12 94 1014.9
20201125160209 34 335 1.7 3.5 0.00 0.12 0.12 94 1014.9
20201125160109 34 341 1.7 3.5 0.00 0.12 0.12 94 1014.9
20201125160019 34 343 2.6 3.5 0.00 0.12 0.12 94 1014.9
20201125155915 34 348 1.7 3.5 0.00 0.12 0.12 95 1014.9
20201125155810 34 359 2.6 3.5 0.00 0.12 0.12 95 1014.9
20201125155711 34 7 2.6 3.5 0.00 0.12 0.12 95 1014.9
20201125155609 34 15 1.7 2.6 0.00 0.12 0.12 95 1014.9
20201125155521 34 15 1.7 2.6 0.00 0.12 0.12 95 1014.9
20201125155413 34 22 1.7 2.6 0.00 0.12 0.12 95 1014.9
20201125155310 34 19 1.7 3.5 0.00 0.12 0.12 95 1014.9
20201125155214 34 7 0.9 3.5 0.00 0.12 0.12 95 1014.9
20201125155115 34 360 0.9 4.3 0.00 0.12 0.12 95 1014.9
20201125155027 34 351 0.9 4.3 0.00 0.12 0.12 96 1014.9
20201125154912 34 351 1.7 4.3 0.00 0.12 0.12 96 1014.9
20201125154813 34 346 1.7 5.2 0.00 0.12 0.12 96 1014.9
20201125154710 34 341 0.9 5.2 0.00 0.12 0.12 96 1014.9
20201125154610 34 342 1.7 5.2 0.00 0.12 0.12 96 1014.9
20201125154522 34 342 2.6 6.1 0.00 0.12 0.12 96 1014.9
20201125154409 34 338 0.9 6.1 0.00 0.12 0.12 96 1014.9
20201125154311 34 335 2.6 6.1 0.00 0.12 0.12 96 1014.9
20201125154210 34 337 2.6 6.1 0.00 0.12 0.12 96 1014.9
20201125154110 34 337 3.5 6.1 0.00 0.12 0.12 97 1014.9
20201125154019 34 338 3.5 6.1 0.00 0.12 0.12 97 1014.9
20201125153910 34 337 3.5 6.1 0.00 0.12 0.12 97 1014.9
20201125153809 34 338 3.5 6.1 0.00 0.12 0.12 97 1014.9
20201125153712 34 338 3.5 6.1 0.00 0.12 0.12 97 1014.9
20201125153610 34 335 3.5 6.1 0.00 0.12 0.12 97 1014.9
20201125153516 34 337 4.3 6.1 0.00 0.12 0.12 97 1014.9
20201125153409 34 335 5.2 6.1 0.00 0.12 0.12 97 1014.9
20201125153313 34 336 4.3 5.2 0.00 0.12 0.12 97 1014.9
20201125153211 34 338 4.3 5.2 0.00 0.12 0.12 97 1014.9
20201125153111 34 339 2.6 5.2 0.00 0.12 0.12 97 1014.9
20201125153025 34 338 3.5 5.2 0.00 0.12 0.12 97 1014.9
20201125152910 34 338 3.5 5.2 0.00 0.12 0.12 98 1014.9
20201125152810 34 335 2.6 5.2 0.00 0.12 0.12 98 1014.9
20201125152713 34 335 2.6 5.2 0.00 0.12 0.12 98 1014.9
20201125152613 34 338 3.5 5.2 0.00 0.12 0.12 98 1014.9
20201125152525 34 336 2.6 5.2 0.00 0.12 0.12 98 1014.9
20201125152411 34 335 3.5 5.2 0.00 0.12 0.12 98 1014.9
20201125152313 34 338 3.5 5.2 0.00 0.12 0.12 98 1014.9
20201125152209 34 334 3.5 5.2 0.00 0.12 0.12 98 1014.9
20201125152110 34 330 5.2 5.2 0.00 0.12 0.12 98 1014.9
20201125152022 34 330 4.3 5.2 0.00 0.12 0.12 98 1014.9
20201125151910 34 331 3.5 5.2 0.00 0.12 0.12 98 1014.9
20201125151810 34 331 3.5 5.2 0.00 0.12 0.12 98 1014.9
20201125151711 34 333 3.5 5.2 0.00 0.12 0.12 98 1014.9
20201125151609 34 333 4.3 5.2 0.00 0.12 0.12 98 1014.9
20201125151512 34 334 4.3 5.2 0.00 0.12 0.12 98 1014.9
20201125151409 34 335 3.5 5.2 0.00 0.12 0.12 98 1014.9
20201125151311 34 334 3.5 5.2 0.00 0.12 0.12 98 1014.9
20201125151211 34 337 3.5 5.2 0.00 0.12 0.12 98 1014.9
20201125151113 34 340 4.3 5.2 0.00 0.12 0.12 98 1014.9
20201125151020 34 340 2.6 4.3 0.00 0.12 0.12 98 1014.9
20201125150909 34 341 2.6 4.3 0.00 0.12 0.12 98 1014.9
20201125150809 34 343 2.6 4.3 0.00 0.12 0.12 98 1014.9
20201125150715 34 342 1.7 4.3 0.00 0.12 0.12 98 1014.9
20201125150610 34 340 2.6 5.2 0.00 0.12 0.12 98 1014.9
20201125150520 34 339 2.6 5.2 0.00 0.12 0.12 98 1014.9
20201125150410 34 339 1.7 5.2 0.03 0.12 0.12 98 1014.9
20201125150312 34 341 3.5 5.2 0.03 0.12 0.12 98 1014.9
20201125150209 34 340 1.7 5.2 0.03 0.12 0.12 98 1014.9
20201125150116 34 341 1.7 5.2 0.03 0.12 0.12 98 1014.9
20201125150023 34 340 3.5 5.2 0.03 0.12 0.12 98 1014.9
20201125145909 34 340 3.5 5.2 0.03 0.12 0.12 98 1014.9
20201125145811 34 339 3.5 5.2 0.03 0.12 0.12 98 1014.9
20201125145709 34 339 3.5 5.2 0.03 0.12 0.12 98 1014.9
20201125145609 34 337 3.5 5.2 0.03 0.12 0.12 98 1014.9
20201125145512 34 338 4.3 5.2 0.03 0.12 0.12 98 1014.9
20201125145410 34 339 4.3 5.2 0.03 0.12 0.12 98 1014.9
20201125145310 34 338 1.7 4.3 0.03 0.12 0.12 98 1014.9
20201125145209 34 336 1.7 4.3 0.03 0.12 0.12 98 1014.9
20201125145109 34 333 1.7 4.3 0.03 0.12 0.12 98 1014.9
20201125145019 34 337 1.7 4.3 0.03 0.12 0.12 98 1014.9
20201125144911 34 334 1.7 4.3 0.03 0.12 0.12 98 1014.9
20201125144810 34 335 3.5 4.3 0.03 0.12 0.12 98 1013.9
20201125144709 34 335 3.5 4.3 0.03 0.12 0.12 98 1013.9
20201125144617 34 336 3.5 4.3 0.03 0.12 0.12 98 1013.9
20201125144529 34 333 3.5 4.3 0.03 0.12 0.12 98 1013.9
20201125144410 34 329 3.5 4.3 0.03 0.12 0.12 98 1013.9
20201125144310 34 328 3.5 4.3 0.03 0.12 0.12 98 1013.9
20201125144213 34 327 3.5 4.3 0.03 0.12 0.12 98 1013.9
20201125144116 34 328 3.5 4.3 0.03 0.12 0.12 98 1013.9
20201125144020 34 329 3.5 4.3 0.03 0.12 0.12 98 1013.9
20201125143911 34 328 3.5 3.5 0.03 0.12 0.12 98 1013.9
20201125143823 34 329 2.6 3.5 0.03 0.12 0.12 98 1013.9
20201125143710 34 330 0.9 3.5 0.03 0.12 0.12 98 1013.9
20201125143611 34 330 1.7 3.5 0.03 0.12 0.12 98 1013.9
20201125143519 34 333 2.6 3.5 0.03 0.12 0.12 98 1013.9
20201125143409 34 333 2.6 3.5 0.03 0.12 0.12 98 1013.9
20201125143309 34 332 2.6 3.5 0.03 0.12 0.12 98 1013.9
20201125143211 34 332 2.6 3.5 0.03 0.12 0.12 98 1013.9
20201125143111 34 333 2.6 3.5 0.03 0.12 0.12 98 1013.9
20201125143020 34 329 1.7 2.6 0.03 0.12 0.12 98 1013.9
20201125142910 34 327 1.7 2.6 0.03 0.12 0.12 98 1013.9
20201125142810 34 325 1.7 2.6 0.03 0.12 0.12 98 1013.9
20201125142710 34 323 1.7 2.6 0.03 0.12 0.12 98 1013.9
20201125142611 34 323 1.7 2.6 0.03 0.12 0.12 98 1013.9
20201125142516 34 321 1.7 2.6 0.03 0.12 0.12 98 1013.9
20201125142409 34 322 1.7 2.6 0.03 0.12 0.12 98 1013.9
20201125142310 34 321 1.7 2.6 0.03 0.12 0.12 98 1013.9
20201125142211 34 321 1.7 2.6 0.03 0.12 0.12 98 1013.9
20201125142112 34 315 1.7 3.5 0.03 0.12 0.12 98 1013.9
20201125142017 34 314 1.7 3.5 0.03 0.12 0.12 98 1013.9
20201125141910 34 304 1.7 3.5 0.03 0.12 0.12 98 1013.9
20201125141812 34 297 0.9 3.5 0.03 0.12 0.12 98 1013.9
20201125141709 34 286 0.9 3.5 0.03 0.12 0.12 98 1013.9
20201125141609 34 288 0.9 3.5 0.03 0.12 0.12 98 1013.9
20201125141519 34 279 0.9 3.5 0.03 0.12 0.12 98 1013.9
20201125141410 34 272 1.7 3.5 0.03 0.12 0.12 98 1013.9
20201125141310 34 268 1.7 3.5 0.03 0.12 0.12 98 1013.9
20201125141209 34 252 0.9 3.5 0.03 0.12 0.12 98 1013.9
20201125141110 34 225 0.9 1.7 0.03 0.12 0.12 98 1013.9
20201125141026 34 225 0.9 1.7 0.03 0.12 0.12 98 1013.9
20201125140912 34 208 0.9 0.9 0.03 0.12 0.12 98 1013.9
20201125140810 34 198 0.9 0.9 0.03 0.12 0.12 98 1013.9
20201125140711 34 180 0.0 0.9 0.03 0.12 0.12 98 1013.9
20201125140609 34 180 0.0 0.9 0.03 0.12 0.12 98 1013.9
20201125140519 34 180 0.0 0.9 0.03 0.12 0.12 98 1013.9
20201125140411 34 180 0.0 0.9 0.00 0.09 0.09 98 1013.9
20201125140310 34 180 0.0 0.9 0.00 0.09 0.09 98 1013.9
20201125140216 34 180 0.0 0.9 0.00 0.09 0.09 98 1013.9
20201125140111 34 180 0.0 0.9 0.00 0.09 0.09 98 1013.9
20201125140027 34 180 0.0 0.9 0.00 0.09 0.09 98 1013.9
20201125135909 34 0 0.0 0.0 0.00 0.09 0.09 98 1013.9
20201125135809 34 0 0.0 0.0 0.00 0.09 0.09 98 1013.9
20201125135710 34 0 0.0 0.0 0.00 0.09 0.09 98 1013.9
20201125135610 34 0 0.0 0.0 0.00 0.09 0.09 98 1013.9
20201125135512 34 0 0.0 0.0 0.00 0.09 0.09 98 1013.9
20201125135409 34 0 0.0 0.0 0.00 0.09 0.09 98 1013.9
20201125135309 34 0 0.0 0.0 0.00 0.09 0.09 98 1013.9
20201125135210 34 0 0.0 0.0 0.00 0.09 0.09 98 1013.9
20201125135110 34 0 0.0 0.0 0.00 0.09 0.09 98 1013.9
20201125135021 33 0 0.0 0.0 0.00 0.09 0.09 98 1013.9
20201125134909 33 0 0.0 0.0 0.00 0.09 0.09 98 1013.9
20201125134809 33 0 0.0 0.0 0.00 0.09 0.09 98 1013.9
20201125134709 33 0 0.0 0.0 0.00 0.09 0.09 98 1013.9
20201125134610 33 0 0.0 0.0 0.00 0.09 0.09 98 1013.9
20201125134512 33 0 0.0 0.0 0.00 0.09 0.09 98 1013.9
20201125134410 33 0 0.0 0.0 0.00 0.09 0.09 98 1013.9
20201125134309 33 0 0.0 0.0 0.00 0.09 0.09 98 1013.9
20201125134213 33 0 0.0 0.0 0.00 0.09 0.09 98 1013.9
20201125134109 33 0 0.0 0.0 0.00 0.09 0.09 98 1013.9
20201125134016 33 0 0.0 0.0 0.00 0.09 0.09 98 1013.9
20201125133910 33 0 0.0 0.0 0.00 0.09 0.09 98 1013.9
20201125133810 33 180 0.0 0.9 0.00 0.09 0.09 98 1013.9
20201125133710 33 180 0.0 0.9 0.00 0.09 0.09 98 1013.9
20201125133609 33 180 0.0 0.9 0.00 0.09 0.09 98 1013.9
20201125133526 33 180 0.0 0.9 0.00 0.09 0.09 98 1013.9
20201125133411 33 180 0.0 0.9 0.00 0.09 0.09 98 1013.9
20201125133310 33 180 0.0 0.9 0.00 0.09 0.09 98 1013.9
20201125133210 33 180 0.0 0.9 0.00 0.09 0.09 98 1013.9
20201125133110 33 180 0.0 0.9 0.00 0.09 0.09 98 1013.9
20201125133020 33 180 0.0 1.7 0.00 0.09 0.09 98 1013.9
20201125132909 33 180 0.0 1.7 0.00 0.09 0.09 98 1013.9
20201125132817 33 180 0.9 1.7 0.00 0.09 0.09 98 1013.9
20201125132710 33 180 0.9 1.7 0.00 0.09 0.09 98 1013.9
20201125132610 33 180 0.9 1.7 0.00 0.09 0.09 98 1013.9
20201125132509 33 180 0.0 1.7 0.00 0.09 0.09 98 1013.9
20201125132412 33 180 0.9 1.7 0.00 0.09 0.09 98 1013.9
20201125132311 33 180 0.9 1.7 0.00 0.09 0.09 98 1013.9
20201125132211 33 180 0.9 1.7 0.00 0.09 0.09 98 1013.9
20201125132110 33 180 0.9 1.7 0.00 0.09 0.09 98 1013.9
20201125132015 33 180 0.9 1.7 0.00 0.09 0.09 98 1013.9
20201125131910 33 180 0.9 1.7 0.00 0.09 0.09 98 1013.9
20201125131810 33 180 0.9 1.7 0.00 0.09 0.09 98 1012.9
20201125131709 33 180 0.9 1.7 0.00 0.09 0.09 98 1012.9
20201125131610 33 180 0.9 1.7 0.00 0.09 0.09 98 1012.9
20201125131520 33 180 0.9 1.7 0.00 0.09 0.09 98 1012.9
20201125131409 33 180 0.9 1.7 0.00 0.09 0.09 98 1012.9
20201125131309 33 180 0.9 1.7 0.00 0.09 0.09 98 1012.9
20201125131227 33 180 0.9 1.7 0.00 0.09 0.09 98 1012.9
20201125131109 33 180 0.9 1.7 0.00 0.09 0.09 98 1012.9
20201125131011 33 180 0.0 1.7 0.00 0.09 0.09 98 1012.9
20201125130911 33 180 0.0 1.7 0.00 0.09 0.09 98 1012.9
20201125130809 33 180 0.9 1.7 0.00 0.09 0.09 98 1012.9
20201125130710 33 180 0.9 1.7 0.00 0.09 0.09 98 1012.9
20201125130612 33 180 0.9 1.7 0.00 0.09 0.09 98 1012.9
20201125130516 33 180 0.9 1.7 0.00 0.09 0.09 98 1012.9
20201125130410 33 180 0.9 1.7 0.00 0.09 0.09 98 1012.9
20201125130311 33 180 0.9 1.7 0.00 0.09 0.09 98 1012.9
20201125130209 33 180 0.9 1.7 0.00 0.09 0.09 98 1012.9
20201125130109 33 180 0.9 1.7 0.00 0.09 0.09 98 1012.9
20201125130019 33 180 0.9 1.7 0.00 0.09 0.09 98 1012.9
20201125125911 33 180 0.9 1.7 0.00 0.09 0.09 98 1012.9
20201125125811 33 180 0.9 1.7 0.00 0.09 0.09 98 1012.9
20201125125710 33 180 0.9 1.7 0.00 0.09 0.09 98 1012.9
20201125125609 33 180 1.7 1.7 0.00 0.09 0.09 98 1012.9
20201125125510 33 180 1.7 1.7 0.00 0.09 0.09 98 1012.9
20201125125409 33 180 1.7 1.7 0.00 0.09 0.09 98 1012.9
20201125125314 33 180 0.9 1.7 0.00 0.09 0.09 98 1012.9
20201125125216 33 180 0.9 1.7 0.00 0.09 0.09 98 1012.9
20201125125121 33 180 0.9 0.9 0.00 0.09 0.09 98 1012.9
20201125125022 33 180 0.9 0.9 0.00 0.09 0.09 98 1012.9
20201125124915 33 180 0.0 0.9 0.00 0.09 0.09 98 1012.9
20201125124809 33 180 0.0 0.9 0.00 0.09 0.09 98 1013.9
20201125124711 33 180 0.0 1.7 0.00 0.09 0.09 98 1013.9
20201125124610 33 180 0.9 1.7 0.00 0.09 0.09 97 1013.9
20201125124516 33 180 0.9 1.7 0.00 0.09 0.09 98 1013.9
20201125124409 33 180 0.9 1.7 0.00 0.09 0.09 98 1013.9
20201125124310 33 180 0.9 1.7 0.00 0.09 0.09 98 1013.9
20201125124210 33 180 0.9 1.7 0.00 0.09 0.09 97 1013.9
20201125124110 33 180 0.9 1.7 0.00 0.09 0.09 97 1013.9
20201125124023 33 180 0.9 1.7 0.00 0.09 0.09 97 1013.9
20201125123910 33 180 0.9 1.7 0.00 0.09 0.09 97 1013.9
20201125123812 33 180 0.9 1.7 0.00 0.09 0.09 97 1013.9
20201125123709 33 180 0.9 1.7 0.00 0.09 0.09 97 1013.9
20201125123609 33 180 0.9 1.7 0.00 0.09 0.09 97 1013.9
20201125123525 33 180 0.9 1.7 0.00 0.09 0.09 97 1013.9
20201125123410 33 180 0.9 1.7 0.00 0.09 0.09 97 1013.9
20201125123310 33 180 0.9 1.7 0.00 0.09 0.09 97 1013.9
20201125123210 33 180 0.9 1.7 0.00 0.09 0.09 97 1013.9
20201125123130 33 180 0.0 1.7 0.00 0.09 0.09 97 1013.9
20201125123038 33 180 0.0 1.7 0.00 0.09 0.09 97 1013.9
20201125122910 33 180 0.0 1.7 0.00 0.09 0.09 97 1013.9
20201125122810 33 180 0.9 1.7 0.00 0.09 0.09 97 1013.9
20201125122713 33 180 0.9 1.7 0.00 0.09 0.09 97 1013.9
20201125122613 33 180 0.9 1.7 0.00 0.09 0.09 97 1013.9
20201125122511 33 180 0.9 1.7 0.05 0.09 0.09 97 1013.9
20201125122409 33 180 0.9 1.7 0.05 0.09 0.09 97 1013.9
20201125122311 33 180 0.9 1.7 0.05 0.09 0.09 98 1013.9
20201125122210 33 180 0.9 1.7 0.05 0.09 0.09 98 1013.9
20201125122120 33 180 0.9 1.7 0.05 0.09 0.09 98 1013.9
20201125122029 33 180 0.9 1.7 0.05 0.09 0.09 98 1013.9
20201125121909 33 180 1.7 1.7 0.05 0.09 0.09 98 1013.9
20201125121811 33 180 0.9 1.7 0.05 0.09 0.09 98 1013.9
20201125121712 33 180 1.7 1.7 0.05 0.09 0.09 98 1013.9
20201125121616 33 180 0.9 1.7 0.05 0.09 0.09 98 1013.9
20201125121511 33 180 1.7 1.7 0.05 0.09 0.09 97 1013.9
20201125121410 33 180 1.7 1.7 0.05 0.09 0.09 97 1013.9
20201125121309 33 180 1.7 1.7 0.05 0.09 0.09 97 1013.9
20201125121210 33 180 1.7 1.7 0.05 0.09 0.09 97 1013.9
20201125121110 33 180 1.7 1.7 0.05 0.09 0.09 97 1013.9
20201125121018 33 180 0.9 1.7 0.05 0.09 0.09 97 1013.9
20201125120909 33 180 1.7 1.7 0.05 0.09 0.09 97 1013.9
20201125120813 33 180 1.7 1.7 0.05 0.09 0.09 97 1013.9
20201125120713 33 180 0.9 1.7 0.05 0.09 0.09 97 1013.9
20201125120610 33 180 0.9 1.7 0.05 0.09 0.09 97 1013.9
20201125120519 33 180 0.9 1.7 0.05 0.09 0.09 97 1013.9
20201125120410 33 180 0.9 1.7 0.05 0.09 0.09 97 1013.9
20201125120309 33 180 0.9 1.7 0.05 0.09 0.09 97 1013.9
20201125120210 33 180 0.9 1.7 0.05 0.09 0.09 97 1013.9
20201125120109 33 180 0.9 1.7 0.05 0.09 0.09 97 1013.9
20201125120032 33 180 1.7 1.7 0.05 0.09 0.09 97 1013.9
20201125115910 33 180 1.7 1.7 0.05 0.09 0.09 97 1013.9
20201125115811 33 180 1.7 1.7 0.05 0.09 0.09 97 1013.9
20201125115709 33 180 1.7 1.7 0.05 0.09 0.09 97 1013.9
20201125115609 33 180 1.7 1.7 0.05 0.09 0.09 97 1013.9
20201125115515 33 180 1.7 1.7 0.05 0.09 0.09 97 1013.9
20201125115411 33 180 1.7 1.7 0.05 0.09 0.09 97 1013.9
20201125115310 33 180 1.7 1.7 0.05 0.09 0.09 98 1013.9
20201125115210 33 180 1.7 1.7 0.05 0.09 0.09 98 1013.9
20201125115110 34 180 1.7 1.7 0.05 0.09 0.09 98 1013.9
20201125115018 34 180 0.9 1.7 0.05 0.09 0.09 98 1013.9
20201125114909 34 180 0.9 1.7 0.05 0.09 0.09 98 1013.9
20201125114817 34 180 0.9 1.7 0.05 0.09 0.09 98 1013.9
20201125114710 34 180 0.0 1.7 0.05 0.09 0.09 98 1013.9
20201125114610 34 180 0.9 1.7 0.05 0.09 0.09 98 1013.9
20201125114518 34 180 0.9 1.7 0.05 0.09 0.09 98 1013.9
20201125114411 34 180 0.0 1.7 0.05 0.09 0.09 98 1013.9
20201125114314 34 180 0.9 1.7 0.05 0.09 0.09 98 1013.9
20201125114210 34 180 0.0 1.7 0.05 0.09 0.09 98 1013.9
20201125114110 34 180 0.0 1.7 0.05 0.09 0.09 98 1013.9
20201125114021 34 180 0.0 1.7 0.05 0.09 0.09 98 1013.9
20201125113910 34 180 0.0 1.7 0.05 0.09 0.09 98 1013.9
20201125113811 34 180 0.0 0.9 0.05 0.09 0.09 98 1013.9
20201125113713 34 180 0.0 1.7 0.05 0.09 0.09 98 1013.9
20201125113611 34 187 0.0 1.7 0.05 0.09 0.09 98 1013.9
20201125113525 34 194 0.9 1.7 0.05 0.09 0.09 98 1013.9
20201125113409 34 194 0.9 1.7 0.05 0.09 0.09 98 1013.9
20201125113316 34 191 0.0 2.6 0.05 0.09 0.09 98 1013.9
20201125113213 34 188 0.0 2.6 0.05 0.09 0.09 98 1013.9
20201125113110 34 187 0.9 2.6 0.05 0.09 0.09 98 1013.9
20201125113020 34 187 0.9 2.6 0.05 0.09 0.09 98 1013.9
20201125112910 34 187 0.9 2.6 0.05 0.09 0.09 98 1013.9
20201125112810 34 186 0.9 2.6 0.05 0.09 0.09 98 1013.9
20201125112712 34 185 0.9 2.6 0.05 0.09 0.09 98 1013.9
20201125112610 34 183 1.7 2.6 0.05 0.09 0.09 98 1013.9
20201125112515 34 180 1.7 2.6 0.00 0.04 0.04 98 1013.9
20201125112410 34 180 1.7 2.6 0.00 0.04 0.04 98 1013.9
20201125112310 34 180 1.7 2.6 0.00 0.04 0.04 98 1013.9
20201125112212 34 180 1.7 2.6 0.00 0.04 0.04 98 1013.9
20201125112111 34 180 0.9 2.6 0.00 0.04 0.04 98 1013.9
20201125112010 34 180 2.6 2.6 0.00 0.04 0.04 98 1013.9
20201125111909 34 180 2.6 2.6 0.00 0.04 0.04 98 1013.9
20201125111810 34 180 0.9 2.6 0.00 0.04 0.04 98 1012.9
20201125111710 34 180 0.9 2.6 0.00 0.04 0.04 98 1012.9
20201125111610 34 180 0.9 2.6 0.00 0.04 0.04 98 1012.9
20201125111510 34 180 0.9 2.6 0.00 0.04 0.04 98 1012.9
20201125111409 34 180 1.7 2.6 0.00 0.04 0.04 98 1012.9
20201125111311 34 180 1.7 2.6 0.00 0.04 0.04 98 1012.9
20201125111212 34 180 0.9 2.6 0.00 0.04 0.04 98 1012.9
20201125111109 34 180 0.9 2.6 0.00 0.04 0.04 98 1012.9
20201125111026 34 180 1.7 2.6 0.00 0.04 0.04 98 1012.9
20201125110909 34 180 1.7 3.5 0.00 0.04 0.04 98 1012.9
20201125110812 34 180 1.7 3.5 0.00 0.04 0.04 98 1012.9
20201125110710 34 180 1.7 3.5 0.00 0.04 0.04 98 1012.9
20201125110613 34 180 1.7 3.5 0.00 0.04 0.04 98 1012.9
20201125110510 34 180 1.7 3.5 0.00 0.04 0.04 98 1012.9
20201125110409 34 177 1.7 3.5 0.00 0.04 0.04 98 1012.9
20201125110309 34 171 1.7 3.5 0.00 0.04 0.04 98 1012.9
20201125110214 34 165 0.9 3.5 0.00 0.04 0.04 98 1012.9
20201125110113 34 162 2.6 3.5 0.00 0.04 0.04 98 1012.9
20201125110022 34 156 2.6 3.5 0.00 0.04 0.04 98 1012.9
20201125105909 34 151 2.6 3.5 0.00 0.04 0.04 98 1012.9
20201125105810 34 145 1.7 3.5 0.00 0.04 0.04 98 1012.9
20201125105709 34 143 1.7 3.5 0.00 0.04 0.04 98 1012.9
20201125105610 34 144 1.7 3.5 0.00 0.04 0.04 98 1012.9
20201125105515 34 144 2.6 3.5 0.00 0.04 0.04 98 1012.9
20201125105411 34 144 2.6 3.5 0.00 0.04 0.04 98 1012.9
20201125105309 34 147 2.6 3.5 0.00 0.04 0.04 98 1012.9
20201125105209 34 153 2.6 3.5 0.00 0.04 0.04 98 1012.9
20201125105111 34 157 1.7 3.5 0.00 0.04 0.04 98 1012.9
20201125105019 34 166 2.6 3.5 0.00 0.04 0.04 98 1012.9
20201125104910 34 171 2.6 3.5 0.00 0.04 0.04 98 1012.9
20201125104814 34 179 2.6 4.3 0.00 0.04 0.04 98 1012.9
20201125104709 34 182 2.6 4.3 0.00 0.04 0.04 98 1012.9
20201125104610 34 182 1.7 4.3 0.00 0.04 0.04 98 1012.9
20201125104522 34 184 1.7 4.3 0.00 0.04 0.04 98 1012.9
20201125104412 34 186 1.7 4.3 0.00 0.04 0.04 98 1012.9
20201125104313 34 186 1.7 4.3 0.00 0.04 0.04 98 1012.9
20201125104216 34 186 1.7 4.3 0.00 0.04 0.04 98 1012.9
20201125104110 34 186 1.7 4.3 0.00 0.04 0.04 98 1012.9
20201125104010 34 184 1.7 4.3 0.00 0.04 0.04 98 1012.9
20201125103911 34 184 3.5 4.3 0.00 0.04 0.04 98 1012.9
20201125103810 34 184 3.5 4.3 0.00 0.04 0.04 98 1012.9
20201125103712 34 184 4.3 4.3 0.00 0.04 0.04 98 1012.9
20201125103616 34 186 1.7 4.3 0.00 0.04 0.04 98 1012.9
20201125103511 34 185 2.6 3.5 0.00 0.04 0.04 98 1012.9
20201125103413 34 184 2.6 3.5 0.00 0.04 0.04 98 1012.9
20201125103315 34 182 2.6 3.5 0.00 0.04 0.04 98 1012.9
20201125103210 34 178 3.5 3.5 0.00 0.04 0.04 98 1012.9
20201125103115 34 178 3.5 3.5 0.00 0.04 0.04 98 1012.9
20201125103021 34 178 2.6 3.5 0.00 0.04 0.04 98 1012.9
20201125102910 34 178 2.6 3.5 0.00 0.04 0.04 98 1012.9
20201125102809 34 178 2.6 3.5 0.00 0.04 0.04 98 1012.9
20201125102709 34 177 2.6 3.5 0.00 0.04 0.04 98 1012.9
20201125102611 34 177 2.6 3.5 0.00 0.04 0.04 98 1012.9
20201125102515 34 174 2.6 4.3 0.00 0.04 0.04 98 1012.9
20201125102409 34 174 2.6 4.3 0.00 0.04 0.04 98 1012.9
20201125102309 34 174 2.6 4.3 0.00 0.04 0.04 98 1012.9
20201125102209 34 180 1.7 4.3 0.00 0.04 0.04 98 1012.9
20201125102112 34 180 1.7 4.3 0.00 0.04 0.04 98 1012.9
20201125102022 34 180 0.9 4.3 0.00 0.04 0.04 98 1012.9
20201125101913 34 175 0.9 4.3 0.00 0.04 0.04 98 1012.9
20201125101810 34 175 2.6 4.3 0.00 0.04 0.04 98 1012.9
20201125101714 34 175 2.6 4.3 0.00 0.04 0.04 98 1012.9
20201125101613 34 180 2.6 4.3 0.00 0.04 0.04 98 1012.9
20201125101524 34 180 1.7 3.5 0.00 0.04 0.04 98 1012.9
20201125101410 34 180 1.7 3.5 0.00 0.04 0.04 98 1012.9
20201125101314 34 178 0.9 3.5 0.00 0.04 0.04 98 1012.9
20201125101210 34 178 0.9 3.5 0.00 0.04 0.04 98 1012.9
20201125101110 34 179 0.9 3.5 0.00 0.04 0.04 98 1012.9
20201125101012 34 179 1.7 3.5 0.00 0.04 0.04 98 1012.9
20201125100910 34 183 1.7 3.5 0.00 0.04 0.04 98 1012.9
20201125100811 34 183 1.7 3.5 0.00 0.04 0.04 98 1012.9
20201125100710 34 183 1.7 3.5 0.00 0.04 0.04 98 1012.9
20201125100609 34 179 0.9 3.5 0.00 0.04 0.04 98 1012.9
20201125100511 34 179 1.7 3.5 0.00 0.04 0.04 98 1012.9
20201125100409 34 179 0.0 3.5 0.00 0.04 0.04 98 1012.9
20201125100311 34 179 1.7 3.5 0.00 0.04 0.04 98 1012.9
20201125100213 34 175 2.6 5.2 0.00 0.04 0.04 98 1012.9
20201125100111 34 175 2.6 5.2 0.00 0.04 0.04 98 1012.9
20201125100024 34 175 2.6 5.2 0.00 0.04 0.04 98 1012.9
20201125095915 34 175 2.6 5.2 0.00 0.04 0.04 98 1012.9
20201125095812 34 174 2.6 5.2 0.00 0.04 0.04 98 1012.9
20201125095712 34 174 2.6 5.2 0.00 0.04 0.04 98 1012.9
20201125095610 34 174 2.6 5.2 0.00 0.04 0.04 98 1012.9
20201125095515 34 175 3.5 5.2 0.00 0.04 0.04 98 1012.9
20201125095409 34 179 3.5 5.2 0.00 0.04 0.04 98 1012.9
20201125095309 34 180 3.5 5.2 0.00 0.04 0.04 98 1012.9
20201125095214 34 187 4.3 5.2 0.00 0.04 0.04 98 1012.9
20201125095109 34 187 4.3 5.2 0.00 0.04 0.04 98 1012.9
20201125095010 34 183 1.7 4.3 0.00 0.04 0.04 98 1012.9
20201125094911 34 183 2.6 4.3 0.00 0.04 0.04 98 1012.9
20201125094810 34 183 2.6 4.3 0.00 0.08 0.04 98 1012.9
20201125094712 34 183 1.7 4.3 0.00 0.08 0.04 98 1012.9
20201125094609 34 183 1.7 4.3 0.00 0.08 0.04 98 1012.9
20201125094513 34 181 1.7 4.3 0.00 0.08 0.04 98 1012.9
20201125094411 34 179 0.9 4.3 0.00 0.08 0.04 98 1012.9
20201125094309 34 177 1.7 4.3 0.00 0.08 0.04 98 1012.9
20201125094215 34 177 3.5 4.3 0.00 0.08 0.04 98 1012.9
20201125094109 34 177 3.5 4.3 0.00 0.08 0.04 98 1012.9
20201125094019 34 180 3.5 4.3 0.00 0.08 0.04 98 1012.9
20201125093910 34 181 2.6 4.3 0.00 0.08 0.04 98 1012.9
20201125093823 34 183 2.6 3.5 0.00 0.08 0.04 98 1012.9
20201125093709 34 187 2.6 3.5 0.00 0.08 0.04 98 1012.9
20201125093614 34 186 2.6 3.5 0.00 0.08 0.04 98 1012.9
20201125093515 34 187 2.6 3.5 0.00 0.08 0.04 98 1012.9
20201125093409 34 191 2.6 3.5 0.00 0.08 0.04 98 1012.9
20201125093310 34 188 0.9 3.5 0.00 0.08 0.04 98 1012.9
20201125093212 34 190 1.7 3.5 0.00 0.08 0.04 98 1012.9
20201125093110 34 185 1.7 3.5 0.00 0.08 0.04 98 1012.9
20201125093035 34 188 1.7 3.5 0.00 0.08 0.04 98 1012.9
20201125092911 34 187 1.7 3.5 0.00 0.08 0.04 98 1012.9
20201125092813 34 184 0.9 3.5 0.00 0.08 0.04 98 1012.9
20201125092711 34 180 1.7 3.5 0.00 0.08 0.04 98 1012.9
20201125092611 34 178 1.7 3.5 0.00 0.08 0.04 98 1012.9
20201125092518 34 178 1.7 3.5 0.00 0.08 0.04 98 1012.9
20201125092409 34 175 2.6 4.3 0.00 0.08 0.04 98 1012.9
20201125092314 34 177 2.6 4.3 0.00 0.08 0.04 98 1012.9
20201125092210 34 178 2.6 4.3 0.00 0.08 0.04 98 1012.9
20201125092110 34 182 2.6 4.3 0.00 0.08 0.04 98 1012.9
20201125092020 33 175 1.7 5.2 0.00 0.08 0.04 98 1012.9
20201125091911 33 175 2.6 5.2 0.00 0.08 0.04 98 1012.9
20201125091810 33 175 4.3 5.2 0.00 0.08 0.04 98 1012.9
20201125091709 33 174 2.6 5.2 0.00 0.08 0.04 98 1012.9
20201125091609 33 178 2.6 5.2 0.00 0.08 0.04 98 1012.9
20201125091513 33 179 2.6 5.2 0.00 0.08 0.04 98 1012.9
20201125091416 33 178 2.6 5.2 0.00 0.08 0.04 98 1012.9
20201125091309 34 177 2.6 5.2 0.00 0.08 0.04 98 1012.9
20201125091212 34 180 3.5 5.2 0.00 0.08 0.04 98 1012.9
20201125091109 34 180 3.5 5.2 0.00 0.08 0.04 98 1012.9
20201125091025 34 183 3.5 5.2 0.00 0.08 0.04 98 1012.9
20201125090912 34 185 2.6 5.2 0.00 0.08 0.04 98 1012.9
20201125090811 34 185 2.6 5.2 0.00 0.08 0.04 98 1012.9
20201125090716 34 186 3.5 5.2 0.00 0.08 0.04 98 1012.9
20201125090609 34 185 3.5 5.2 0.00 0.08 0.04 98 1012.9
20201125090514 34 181 2.6 5.2 0.00 0.08 0.04 98 1012.9
20201125090412 34 184 1.7 5.2 0.00 0.08 0.04 98 1012.9
20201125090313 34 184 1.7 5.2 0.00 0.08 0.04 98 1013.9
20201125090228 34 180 3.5 5.2 0.00 0.08 0.04 98 1013.9
20201125090144 34 175 3.5 5.2 0.00 0.08 0.04 98 1013.9
20201125090026 33 170 4.3 5.2 0.00 0.08 0.04 98 1013.9
20201125085916 34 169 3.5 5.2 0.00 0.08 0.04 98 1013.9
20201125085834 34 165 3.5 5.2 0.00 0.08 0.04 98 1013.9
20201125085804 34 164 3.5 5.2 0.00 0.08 0.04 98 1013.9
20201125085609 34 161 3.5 5.2 0.00 0.08 0.04 98 1013.9
20201125085522 34 160 3.5 5.2 0.00 0.08 0.04 98 1013.9
20201125085409 34 159 4.3 5.2 0.00 0.08 0.04 98 1013.9
20201125085309 34 157 3.5 5.2 0.00 0.08 0.04 98 1013.9
20201125085209 34 158 3.5 5.2 0.00 0.08 0.04 98 1013.9
20201125085114 34 160 2.6 5.2 0.00 0.08 0.04 98 1013.9
20201125085020 34 163 3.5 5.2 0.00 0.08 0.04 98 1013.9
20201125084910 34 163 3.5 5.2 0.00 0.08 0.04 98 1013.9
20201125084810 34 163 3.5 3.5 0.00 0.08 0.04 98 1012.9
20201125084714 34 167 2.6 3.5 0.00 0.08 0.04 98 1012.9
20201125084611 34 171 2.6 3.5 0.00 0.08 0.04 98 1012.9
20201125084511 34 170 2.6 3.5 0.00 0.08 0.04 98 1012.9
20201125084414 34 171 3.5 3.5 0.00 0.08 0.04 98 1012.9
20201125084313 34 166 1.7 3.5 0.00 0.08 0.04 98 1012.9
20201125084209 34 167 2.6 3.5 0.00 0.08 0.04 98 1012.9
20201125084110 34 168 2.6 3.5 0.00 0.08 0.04 98 1012.9
20201125084017 34 175 1.7 3.5 0.00 0.08 0.04 98 1012.9
20201125083912 34 173 2.6 3.5 0.00 0.08 0.04 98 1012.9
20201125083809 34 175 2.6 4.3 0.00 0.08 0.04 98 1012.9
20201125083709 34 177 1.7 4.3 0.00 0.08 0.04 98 1012.9
20201125083612 34 179 1.7 4.3 0.00 0.08 0.04 98 1012.9
20201125083520 34 181 1.7 4.3 0.00 0.08 0.04 98 1012.9
20201125083410 34 181 1.7 4.3 0.00 0.08 0.04 98 1012.9
20201125083310 34 184 1.7 4.3 0.00 0.08 0.04 98 1013.9
20201125083210 34 184 2.6 4.3 0.00 0.08 0.04 98 1013.9
20201125083111 34 181 2.6 4.3 0.00 0.08 0.04 98 1013.9
20201125083011 34 175 3.5 4.3 0.00 0.08 0.04 98 1013.9
20201125082909 34 174 3.5 4.3 0.00 0.08 0.04 98 1013.9
20201125082811 34 174 3.5 5.2 0.00 0.08 0.04 98 1013.9
20201125082710 34 174 1.7 5.2 0.00 0.08 0.04 98 1013.9
20201125082609 33 172 1.7 5.2 0.00 0.08 0.04 98 1013.9
20201125082516 33 170 1.7 5.2 0.00 0.08 0.04 98 1013.9
20201125082410 33 170 1.7 5.2 0.00 0.08 0.04 98 1013.9
20201125082310 33 170 3.5 5.2 0.00 0.08 0.04 98 1013.9
20201125082212 34 170 2.6 5.2 0.00 0.08 0.04 98 1013.9
20201125082113 34 171 2.6 5.2 0.00 0.08 0.04 98 1013.9
20201125082017 34 183 2.6 5.2 0.00 0.08 0.04 98 1013.9
20201125081910 34 188 4.3 5.2 0.00 0.08 0.04 98 1013.9
20201125081811 34 189 3.5 3.5 0.00 0.08 0.04 98 1012.9
20201125081712 34 190 3.5 3.5 0.00 0.08 0.04 98 1012.9
20201125081610 34 191 2.6 3.5 0.00 0.08 0.04 98 1012.9
20201125081532 34 192 2.6 3.5 0.00 0.08 0.04 98 1012.9
20201125081409 34 193 2.6 3.5 0.00 0.08 0.04 98 1012.9
20201125081309 34 197 3.5 3.5 0.00 0.08 0.04 98 1012.9
20201125081210 34 199 1.7 3.5 0.00 0.08 0.04 98 1012.9
20201125081110 34 198 1.7 3.5 0.00 0.08 0.04 98 1012.9
20201125081019 34 192 1.7 3.5 0.00 0.08 0.04 98 1012.9
20201125080912 34 196 1.7 3.5 0.00 0.08 0.04 98 1012.9
20201125080809 34 201 1.7 3.5 0.00 0.08 0.04 98 1012.9
20201125080710 34 203 0.9 3.5 0.00 0.08 0.04 98 1012.9
20201125080609 34 205 0.9 3.5 0.00 0.08 0.04 98 1012.9
20201125080512 34 207 0.9 3.5 0.00 0.08 0.04 98 1012.9
20201125080411 34 208 1.7 3.5 0.00 0.08 0.04 98 1012.9
20201125080311 34 213 1.7 3.5 0.00 0.08 0.04 98 1013.9
20201125080211 34 225 0.0 0.9 0.00 0.08 0.04 98 1013.9
20201125080111 34 235 0.0 1.7 0.00 0.08 0.04 98 1013.9
20201125080020 34 235 0.0 1.7 0.00 0.08 0.04 98 1013.9
20201125075916 34 238 0.0 1.7 0.00 0.08 0.04 98 1013.9
20201125075810 34 242 0.9 1.7 0.00 0.08 0.04 98 1013.9
20201125075709 34 246 0.9 1.7 0.00 0.08 0.04 98 1013.9
20201125075611 34 247 0.9 1.7 0.00 0.08 0.04 98 1013.9
20201125075513 34 249 0.9 1.7 0.00 0.08 0.04 98 1013.9
20201125075409 34 248 0.0 1.7 0.00 0.08 0.04 98 1013.9
20201125075309 34 255 0.0 1.7 0.00 0.08 0.04 98 1013.9
20201125075211 34 261 0.9 1.7 0.00 0.08 0.04 98 1013.9
20201125075110 34 257 0.9 2.6 0.00 0.08 0.04 98 1013.9
20201125075017 34 261 0.0 2.6 0.00 0.08 0.04 98 1013.9
20201125074909 34 261 0.0 2.6 0.00 0.08 0.04 98 1013.9
20201125074809 34 280 0.0 3.5 0.00 0.08 0.04 98 1012.9
20201125074710 34 276 0.0 3.5 0.00 0.08 0.04 98 1012.9
20201125074610 34 276 0.0 3.5 0.00 0.08 0.04 98 1012.9
20201125074512 34 270 0.0 3.5 0.00 0.08 0.04 98 1012.9
20201125074409 34 270 0.9 3.5 0.00 0.08 0.04 98 1012.9
20201125074311 34 269 1.7 3.5 0.00 0.08 0.04 98 1012.9
20201125074215 34 268 2.6 3.5 0.00 0.08 0.04 98 1012.9
20201125074110 34 264 1.7 3.5 0.00 0.08 0.04 98 1012.9
20201125074018 34 262 1.7 3.5 0.00 0.08 0.04 98 1012.9
20201125073913 34 255 1.7 3.5 0.00 0.08 0.04 98 1012.9
20201125073809 34 241 1.7 3.5 0.00 0.08 0.04 98 1012.9
20201125073711 34 214 0.0 1.7 0.00 0.08 0.04 98 1012.9
20201125073611 34 214 0.9 1.7 0.00 0.08 0.04 98 1012.9
20201125073513 34 213 0.9 1.7 0.00 0.08 0.04 98 1012.9
20201125073413 34 210 1.7 1.7 0.00 0.08 0.04 98 1012.9
20201125073317 34 206 0.0 1.7 0.00 0.08 0.04 98 1013.9
20201125073211 34 197 0.0 1.7 0.00 0.08 0.04 98 1013.9
20201125073113 34 201 0.9 1.7 0.00 0.08 0.04 98 1013.9
20201125073020 34 210 0.0 2.6 0.00 0.08 0.04 98 1013.9
20201125072910 34 214 0.9 2.6 0.00 0.08 0.04 98 1013.9
20201125072810 34 216 0.9 2.6 0.00 0.08 0.04 98 1013.9
20201125072709 34 224 0.9 2.6 0.00 0.08 0.04 98 1013.9
20201125072610 33 225 1.7 2.6 0.00 0.08 0.04 98 1013.9
20201125072512 33 225 1.7 2.6 0.00 0.08 0.04 98 1013.9
20201125072409 33 227 0.9 2.6 0.00 0.08 0.04 98 1013.9
20201125072311 33 232 0.9 2.6 0.00 0.08 0.04 98 1013.9
20201125072209 33 231 1.7 2.6 0.00 0.08 0.04 98 1013.9
20201125072109 33 231 1.7 2.6 0.00 0.08 0.04 98 1013.9
20201125072012 33 231 0.0 2.6 0.00 0.08 0.04 98 1013.9
20201125071910 33 231 0.0 2.6 0.00 0.08 0.04 98 1013.9
20201125071811 33 230 0.9 2.6 0.00 0.08 0.04 98 1013.9
20201125071712 33 230 0.9 2.6 0.00 0.08 0.04 98 1013.9
20201125071611 33 232 0.9 2.6 0.00 0.08 0.04 98 1013.9
20201125071515 33 232 0.9 2.6 0.00 0.08 0.04 98 1013.9
20201125071418 33 233 0.9 2.6 0.00 0.08 0.04 98 1013.9
20201125071310 33 234 0.9 2.6 0.00 0.08 0.04 98 1013.9
20201125071210 33 236 0.9 2.6 0.00 0.08 0.04 98 1013.9
20201125071110 33 235 0.9 2.6 0.00 0.08 0.04 98 1013.9
20201125071027 33 235 2.6 2.6 0.00 0.08 0.04 98 1013.9
20201125070915 33 236 2.6 2.6 0.00 0.08 0.04 98 1013.9
20201125070809 33 238 0.9 1.7 0.00 0.08 0.04 98 1013.9
20201125070709 33 239 0.9 1.7 0.00 0.08 0.04 98 1013.9
20201125070614 33 237 0.9 1.7 0.00 0.08 0.04 98 1013.9
20201125070545 33 235 0.9 1.7 0.00 0.08 0.04 98 1013.9
20201125070409 33 236 0.9 1.7 0.00 0.08 0.04 98 1013.9
20201125070309 33 237 0.9 1.7 0.00 0.08 0.04 98 1013.9
20201125070215 33 245 1.7 2.6 0.00 0.08 0.04 98 1013.9
20201125070109 33 254 0.9 3.5 0.00 0.08 0.04 98 1013.9
20201125070031 33 257 0.9 3.5 0.00 0.08 0.04 98 1013.9
20201125065910 33 261 0.0 3.5 0.00 0.08 0.04 98 1013.9
20201125065809 33 256 0.0 3.5 0.00 0.08 0.04 98 1013.9
20201125065710 33 254 0.0 3.5 0.00 0.08 0.04 98 1013.9
20201125065613 33 253 0.9 3.5 0.00 0.08 0.04 98 1013.9
20201125065514 33 251 0.0 3.5 0.00 0.08 0.04 98 1013.9
20201125065410 33 250 1.7 3.5 0.00 0.08 0.04 98 1013.9
20201125065310 33 246 1.7 3.5 0.00 0.08 0.04 98 1013.9
20201125065215 33 240 2.6 3.5 0.00 0.08 0.04 98 1013.9
20201125065110 33 237 2.6 3.5 0.00 0.08 0.04 98 1013.9
20201125065019 33 227 2.6 3.5 0.00 0.08 0.04 98 1013.9
20201125064914 33 221 1.7 3.5 0.00 0.08 0.04 98 1013.9
20201125064810 33 220 1.7 3.5 0.00 0.08 0.04 98 1013.9
20201125064709 33 224 0.9 3.5 0.00 0.08 0.04 98 1013.9
20201125064617 33 233 0.9 3.5 0.00 0.08 0.04 98 1013.9
20201125064518 33 245 0.0 3.5 0.00 0.08 0.04 98 1013.9
20201125064411 33 250 0.0 3.5 0.00 0.08 0.04 98 1013.9
20201125064315 33 254 0.9 3.5 0.00 0.08 0.04 98 1013.9
20201125064210 33 256 0.9 3.5 0.00 0.08 0.04 98 1013.9
20201125064109 33 258 2.6 3.5 0.00 0.08 0.04 98 1013.9
20201125064018 33 261 1.7 3.5 0.00 0.08 0.04 98 1013.9
20201125063910 33 262 0.0 3.5 0.00 0.08 0.04 98 1013.9
20201125063810 33 263 2.6 3.5 0.00 0.08 0.04 98 1013.9
20201125063709 33 261 2.6 3.5 0.00 0.08 0.04 98 1013.9
20201125063610 33 260 3.5 3.5 0.00 0.08 0.04 98 1013.9
20201125063520 33 255 2.6 3.5 0.00 0.08 0.04 98 1013.9
20201125063425 33 252 2.6 3.5 0.00 0.08 0.04 98 1013.9
20201125063309 33 244 2.6 3.5 0.00 0.08 0.04 98 1013.9
20201125063209 33 235 1.7 2.6 0.00 0.08 0.04 98 1013.9
20201125063111 33 225 0.9 1.7 0.00 0.08 0.04 98 1013.9
20201125063017 33 225 0.9 1.7 0.00 0.08 0.04 98 1013.9
20201125062910 33 225 0.0 1.7 0.00 0.08 0.04 98 1013.9
20201125062815 33 225 0.9 1.7 0.00 0.08 0.04 98 1013.9
20201125062709 33 225 0.0 2.6 0.00 0.08 0.04 98 1013.9
20201125062609 33 225 0.0 2.6 0.00 0.08 0.04 98 1013.9
20201125062515 33 225 0.9 2.6 0.00 0.08 0.04 98 1013.9
20201125062416 33 225 0.0 2.6 0.00 0.08 0.04 98 1013.9
20201125062309 33 225 0.0 2.6 0.00 0.08 0.04 98 1013.9
20201125062210 33 225 0.0 2.6 0.00 0.08 0.04 97 1013.9
20201125062110 33 225 0.9 2.6 0.00 0.08 0.04 97 1013.9
20201125062011 33 225 0.9 2.6 0.00 0.08 0.04 97 1013.9
20201125061911 33 225 0.9 2.6 0.00 0.08 0.04 97 1013.9
20201125061816 33 225 1.7 2.6 0.00 0.08 0.04 97 1012.9
20201125061710 33 225 1.7 2.6 0.00 0.08 0.04 97 1012.9
20201125061609 33 225 0.9 1.7 0.00 0.08 0.04 97 1012.9
20201125061512 33 225 0.9 1.7 0.00 0.08 0.04 97 1012.9
20201125061411 33 225 1.7 1.7 0.00 0.08 0.04 97 1012.9
20201125061322 33 225 0.9 1.7 0.00 0.08 0.04 97 1012.9
20201125061209 33 225 0.9 1.7 0.00 0.08 0.04 97 1012.9
20201125061111 33 225 1.7 1.7 0.00 0.08 0.04 97 1012.9
20201125061020 33 225 1.7 1.7 0.00 0.08 0.04 97 1012.9
20201125060911 33 225 1.7 1.7 0.00 0.08 0.04 97 1012.9
20201125060821 33 225 1.7 1.7 0.00 0.08 0.04 97 1012.9
20201125060710 33 225 0.0 1.7 0.00 0.08 0.04 98 1012.9
20201125060611 33 225 0.0 1.7 0.00 0.08 0.04 97 1012.9
20201125060516 33 225 0.0 1.7 0.00 0.08 0.04 97 1012.9
20201125060413 33 225 0.0 1.7 0.00 0.08 0.04 97 1012.9
20201125060309 33 225 0.9 1.7 0.00 0.08 0.04 98 1013.9
20201125060215 33 225 0.9 1.7 0.00 0.08 0.04 98 1013.9
20201125060111 33 225 0.9 1.7 0.00 0.08 0.04 98 1013.9
20201125060032 33 225 0.9 1.7 0.00 0.08 0.04 98 1013.9
20201125055910 33 225 0.9 1.7 0.00 0.08 0.04 98 1013.9
20201125055810 33 225 0.9 1.7 0.00 0.08 0.04 98 1013.9
20201125055709 33 225 0.0 0.9 0.00 0.08 0.04 98 1013.9
20201125055611 33 225 0.0 0.9 0.00 0.08 0.04 98 1013.9
20201125055524 33 210 0.0 1.7 0.00 0.08 0.04 98 1013.9
20201125055409 33 194 0.0 1.7 0.00 0.08 0.04 98 1013.9
20201125055312 33 185 0.0 1.7 0.00 0.08 0.04 98 1013.9
20201125055209 33 184 0.0 1.7 0.00 0.08 0.04 98 1013.9
20201125055109 33 183 0.0 1.7 0.00 0.08 0.04 98 1013.9
20201125055019 33 183 0.0 1.7 0.00 0.08 0.04 98 1013.9
20201125054911 33 182 0.0 1.7 0.00 0.08 0.04 97 1013.9
20201125054809 33 181 0.0 1.7 0.00 0.08 0.04 98 1013.9
20201125054709 33 180 0.0 1.7 0.00 0.08 0.04 98 1013.9
20201125054609 33 180 0.9 1.7 0.00 0.08 0.04 98 1013.9
20201125054519 33 180 0.9 1.7 0.00 0.08 0.04 98 1013.9
20201125054409 33 180 1.7 1.7 0.00 0.08 0.04 97 1013.9
20201125054310 33 180 0.9 1.7 0.00 0.08 0.04 97 1013.9
20201125054209 33 180 0.0 1.7 0.00 0.08 0.04 97 1013.9
20201125054111 33 180 0.0 1.7 0.00 0.08 0.04 97 1013.9
20201125054011 33 180 0.9 1.7 0.00 0.08 0.04 97 1013.9
20201125053909 33 180 0.9 1.7 0.00 0.08 0.04 97 1013.9
20201125053810 33 180 0.9 1.7 0.00 0.08 0.04 97 1013.9
20201125053709 33 180 0.9 1.7 0.00 0.08 0.04 97 1013.9
20201125053609 33 180 0.9 1.7 0.00 0.08 0.04 97 1013.9
20201125053516 33 180 1.7 1.7 0.00 0.08 0.04 97 1013.9
20201125053409 33 180 1.7 1.7 0.00 0.08 0.04 97 1013.9
20201125053311 33 180 1.7 1.7 0.00 0.08 0.04 97 1013.9
20201125053211 33 180 0.9 1.7 0.00 0.08 0.04 97 1013.9
20201125053118 33 180 0.9 1.7 0.00 0.08 0.04 97 1013.9
20201125053021 33 180 0.9 1.7 0.00 0.08 0.04 97 1013.9
20201125052925 33 180 0.9 1.7 0.00 0.08 0.04 97 1013.9
20201125052811 33 180 0.0 1.7 0.00 0.08 0.04 97 1013.9
20201125052711 33 180 0.0 1.7 0.00 0.08 0.04 97 1013.9
20201125052610 33 180 0.0 1.7 0.00 0.08 0.04 97 1013.9
20201125052519 33 180 0.0 1.7 0.00 0.08 0.04 97 1013.9
20201125052412 33 180 0.0 1.7 0.00 0.08 0.04 97 1013.9
20201125052309 33 180 0.0 1.7 0.00 0.08 0.04 97 1013.9
20201125052209 33 180 0.0 1.7 0.00 0.08 0.04 97 1013.9
20201125052116 33 180 0.0 1.7 0.00 0.08 0.04 97 1013.9
20201125052020 33 180 0.0 1.7 0.00 0.08 0.04 97 1013.9
20201125051909 33 180 0.9 1.7 0.00 0.08 0.04 97 1013.9
20201125051810 33 180 0.9 1.7 0.00 0.08 0.04 97 1013.9
20201125051712 33 180 0.9 1.7 0.00 0.08 0.04 97 1013.9
20201125051613 33 180 0.9 1.7 0.00 0.08 0.04 97 1013.9
20201125051515 33 180 0.9 2.6 0.00 0.08 0.04 97 1013.9
20201125051412 33 180 0.9 2.6 0.00 0.08 0.04 97 1013.9
20201125051309 33 180 0.9 2.6 0.00 0.08 0.04 97 1013.9
20201125051210 33 180 0.9 2.6 0.00 0.08 0.04 97 1013.9
20201125051110 33 180 0.9 2.6 0.00 0.08 0.04 97 1013.9
20201125051015 33 180 0.9 2.6 0.00 0.08 0.04 97 1013.9
20201125050911 33 180 1.7 2.6 0.00 0.08 0.04 97 1013.9
20201125050813 33 180 1.7 2.6 0.00 0.08 0.04 97 1013.9
20201125050709 32 180 1.7 2.6 0.00 0.08 0.04 97 1013.9
20201125050609 32 180 1.7 2.6 0.00 0.08 0.04 97 1013.9
20201125050517 32 180 2.6 2.6 0.00 0.08 0.04 97 1013.9
20201125050415 32 180 1.7 2.6 0.00 0.08 0.04 97 1013.9
20201125050309 32 180 1.7 2.6 0.00 0.08 0.04 97 1013.9
20201125050213 32 180 0.9 2.6 0.00 0.08 0.04 97 1013.9
20201125050110 33 180 0.9 2.6 0.00 0.08 0.04 97 1013.9
20201125050024 33 180 1.7 2.6 0.00 0.08 0.04 97 1013.9
20201125045912 32 180 1.7 2.6 0.00 0.08 0.04 97 1013.9
20201125045809 32 180 1.7 2.6 0.00 0.08 0.04 97 1013.9
20201125045711 32 180 0.9 2.6 0.00 0.08 0.04 97 1013.9
20201125045614 32 180 1.7 2.6 0.00 0.08 0.04 97 1013.9
20201125045512 32 180 1.7 2.6 0.00 0.08 0.04 97 1013.9
20201125045414 32 180 1.7 2.6 0.00 0.08 0.04 97 1013.9
20201125045314 32 180 2.6 2.6 0.00 0.08 0.04 97 1013.9
20201125045213 32 180 2.6 2.6 0.00 0.08 0.04 97 1013.9
20201125045116 32 180 1.7 2.6 0.00 0.08 0.04 97 1013.9
20201125045017 32 180 2.6 2.6 0.00 0.08 0.04 97 1013.9
20201125044909 32 180 1.7 2.6 0.00 0.08 0.04 97 1013.9
20201125044810 33 180 2.6 2.6 0.00 0.08 0.04 97 1012.9
20201125044710 33 180 1.7 3.5 0.00 0.08 0.04 97 1012.9
20201125044610 33 180 1.7 4.3 0.00 0.08 0.04 97 1012.9
20201125044522 33 180 0.9 4.3 0.00 0.08 0.04 97 1012.9
20201125044409 33 180 0.9 4.3 0.00 0.08 0.04 97 1012.9
20201125044310 33 180 1.7 4.3 0.00 0.08 0.04 97 1012.9
20201125044209 33 180 1.7 4.3 0.00 0.08 0.04 97 1012.9
20201125044109 33 180 1.7 4.3 0.00 0.08 0.04 97 1012.9
20201125044014 33 180 1.7 4.3 0.00 0.08 0.04 97 1012.9
20201125043910 33 180 2.6 4.3 0.00 0.08 0.04 97 1012.9
20201125043809 33 180 1.7 4.3 0.00 0.08 0.04 97 1012.9
20201125043709 33 180 1.7 4.3 0.00 0.08 0.04 97 1012.9
20201125043609 33 180 3.5 4.3 0.00 0.08 0.04 97 1012.9
20201125043512 33 180 2.6 3.5 0.00 0.08 0.04 97 1012.9
20201125043410 33 180 2.6 3.5 0.00 0.08 0.04 97 1012.9
20201125043310 33 180 2.6 3.5 0.00 0.08 0.04 97 1012.9
20201125043209 33 180 1.7 3.5 0.00 0.08 0.04 97 1012.9
20201125043109 33 180 1.7 3.5 0.00 0.08 0.04 97 1012.9
20201125043016 32 180 2.6 3.5 0.00 0.08 0.04 97 1012.9
20201125042910 32 180 1.7 3.5 0.00 0.08 0.04 97 1012.9
20201125042810 32 180 1.7 3.5 0.00 0.08 0.04 97 1012.9
20201125042709 32 180 1.7 3.5 0.00 0.08 0.04 97 1012.9
20201125042611 32 180 1.7 3.5 0.00 0.08 0.04 97 1012.9
20201125042512 32 180 1.7 3.5 0.00 0.08 0.04 97 1012.9
20201125042410 32 180 1.7 3.5 0.00 0.08 0.04 97 1012.9
20201125042310 32 180 1.7 3.5 0.00 0.08 0.04 97 1012.9
20201125042209 32 180 1.7 3.5 0.00 0.08 0.04 97 1012.9
20201125042109 32 180 1.7 3.5 0.00 0.08 0.04 97 1012.9
20201125042020 32 180 2.6 3.5 0.00 0.08 0.04 97 1012.9
20201125041912 32 180 1.7 2.6 0.00 0.08 0.04 97 1012.9
20201125041809 32 180 0.9 1.7 0.00 0.08 0.04 97 1012.9
20201125041710 32 180 0.9 1.7 0.00 0.08 0.04 98 1012.9
20201125041614 32 180 0.9 1.7 0.00 0.08 0.04 98 1012.9
20201125041516 32 180 1.7 1.7 0.00 0.08 0.04 98 1012.9
20201125041409 32 180 1.7 3.5 0.00 0.08 0.04 98 1012.9
20201125041309 32 180 0.9 3.5 0.00 0.08 0.04 98 1012.9
20201125041209 32 180 0.9 3.5 0.00 0.08 0.04 98 1012.9
20201125041109 32 180 0.9 3.5 0.00 0.08 0.04 98 1012.9
20201125041019 33 180 0.9 3.5 0.00 0.08 0.04 98 1012.9
20201125040909 33 180 0.9 3.5 0.00 0.08 0.04 98 1012.9
20201125040812 33 180 0.9 3.5 0.00 0.08 0.04 98 1012.9
20201125040711 33 180 1.7 3.5 0.00 0.08 0.04 98 1012.9
20201125040609 33 180 1.7 3.5 0.00 0.08 0.04 98 1012.9
20201125040516 33 180 1.7 3.5 0.00 0.08 0.04 98 1012.9
20201125040410 33 180 2.6 3.5 0.00 0.08 0.04 98 1012.9
20201125040309 33 180 2.6 3.5 0.00 0.08 0.04 98 1012.9
20201125040210 33 180 2.6 3.5 0.00 0.08 0.04 98 1012.9
20201125040111 32 180 2.6 3.5 0.00 0.08 0.04 98 1012.9
20201125040019 32 180 2.6 2.6 0.00 0.08 0.04 98 1012.9
20201125035910 32 180 1.7 2.6 0.00 0.08 0.04 98 1012.9
20201125035814 32 180 1.7 1.7 0.00 0.08 0.04 98 1012.9
20201125035709 32 180 0.9 1.7 0.00 0.08 0.04 98 1012.9
20201125035609 32 180 0.9 1.7 0.00 0.08 0.04 98 1012.9
20201125035517 32 180 0.9 1.7 0.00 0.08 0.04 98 1012.9
20201125035409 32 180 0.9 1.7 0.00 0.08 0.04 98 1012.9
20201125035311 32 180 0.9 1.7 0.00 0.08 0.04 98 1012.9
20201125035210 32 180 0.9 1.7 0.00 0.08 0.04 98 1012.9
20201125035110 32 180 0.9 1.7 0.00 0.08 0.04 98 1012.9
20201125035012 32 180 0.9 1.7 0.00 0.08 0.04 98 1012.9
20201125034909 32 180 0.9 1.7 0.00 0.08 0.04 98 1012.9
20201125034809 32 180 1.7 1.7 0.00 0.08 0.04 98 1012.9
20201125034711 32 180 0.9 1.7 0.00 0.08 0.04 98 1012.9
20201125034610 32 180 0.9 1.7 0.00 0.08 0.04 98 1012.9
20201125034511 32 180 1.7 1.7 0.00 0.08 0.04 98 1012.9
20201125034409 32 180 1.7 1.7 0.00 0.08 0.04 98 1012.9
20201125034319 32 180 0.9 1.7 0.00 0.08 0.04 98 1012.9